Wetterdaten: Dienstag, 25.08.2015
Datum Zeit Temp. Aussen +5cm Feuchte Auss BlattFeu 1 Luftdruck Regen Sonnenschein Regendauer Solar Windben
25.08.2015 00:00 17,9 C 16,1 C 78 % 0 lf 1002,5 hPa 0,0 l/m 0 min 0 min 0 W/m 27,2 km/h (4 Bft)
25.08.2015 00:02 17,9 C 16,1 C 79 % 0 lf 1002,5 hPa 0,0 l/m 0 min 0 min 0 W/m 18,8 km/h (3 Bft)
25.08.2015 00:05 17,7 C 16,1 C 78 % 0 lf 1002,5 hPa 0,0 l/m 0 min 0 min 0 W/m 23,0 km/h (4 Bft)
25.08.2015 00:07 17,7 C 16,1 C 78 % 0 lf 1002,5 hPa 0,0 l/m 0 min 0 min 0 W/m 31,4 km/h (5 Bft)
25.08.2015 00:08 17,7 C 16,1 C 78 % 0 lf 1002,5 hPa 0,0 l/m 0 min 0 min 0 W/m 35,6 km/h (5 Bft)
25.08.2015 00:10 17,7 C 16,1 C 78 % 0 lf 1002,5 hPa 0,0 l/m 0 min 0 min 0 W/m 43,9 km/h (6 Bft)
25.08.2015 00:12 17,6 C 16,1 C 78 % 0 lf 1002,6 hPa 0,0 l/m 0 min 0 min 0 W/m 31,4 km/h (5 Bft)
25.08.2015 00:14 17,6 C 16,1 C 78 % 0 lf 1002,6 hPa 0,0 l/m 0 min 0 min 0 W/m 31,4 km/h (5 Bft)
25.08.2015 00:16 17,6 C 16,1 C 77 % 0 lf 1002,6 hPa 0,0 l/m 0 min 0 min 0 W/m 31,4 km/h (5 Bft)
25.08.2015 00:18 17,6 C 16,1 C 77 % 0 lf 1002,5 hPa 0,0 l/m 0 min 0 min 0 W/m 31,4 km/h (5 Bft)
25.08.2015 00:20 17,6 C 16,1 C 77 % 0 lf 1002,5 hPa 0,0 l/m 0 min 0 min 0 W/m 35,6 km/h (5 Bft)
25.08.2015 00:22 17,6 C 16,1 C 77 % 0 lf 1002,5 hPa 0,0 l/m 0 min 0 min 0 W/m 37,7 km/h (5 Bft)
25.08.2015 00:24 17,6 C 16,1 C 77 % 0 lf 1002,6 hPa 0,0 l/m 0 min 0 min 0 W/m 54,4 km/h (7 Bft)
25.08.2015 00:26 17,6 C 16,1 C 77 % 0 lf 1002,5 hPa 0,0 l/m 0 min 0 min 0 W/m 39,7 km/h (6 Bft)
25.08.2015 00:28 17,6 C 16,1 C 77 % 0 lf 1002,6 hPa 0,0 l/m 0 min 0 min 0 W/m 37,7 km/h (5 Bft)
25.08.2015 00:30 17,6 C 16,1 C 77 % 0 lf 1002,6 hPa 0,0 l/m 0 min 0 min 0 W/m 29,3 km/h (5 Bft)
25.08.2015 00:32 17,6 C 16,1 C 77 % 0 lf 1002,6 hPa 0,0 l/m 0 min 0 min 0 W/m 31,4 km/h (5 Bft)
25.08.2015 00:34 17,5 C 16,1 C 77 % 0 lf 1002,8 hPa 0,0 l/m 0 min 0 min 0 W/m 27,2 km/h (4 Bft)
25.08.2015 00:36 17,5 C 16,1 C 77 % 0 lf 1002,7 hPa 0,0 l/m 0 min 0 min 0 W/m 39,7 km/h (6 Bft)
25.08.2015 00:38 17,5 C 16,1 C 77 % 0 lf 1002,7 hPa 0,0 l/m 0 min 0 min 0 W/m 35,6 km/h (5 Bft)
25.08.2015 00:40 17,5 C 16,1 C 77 % 0 lf 1002,7 hPa 0,0 l/m 0 min 0 min 0 W/m 33,5 km/h (5 Bft)
25.08.2015 00:42 17,5 C 16,1 C 77 % 0 lf 1002,7 hPa 0,0 l/m 0 min 0 min 0 W/m 23,0 km/h (4 Bft)
25.08.2015 00:44 17,5 C 16,1 C 77 % 0 lf 1002,7 hPa 0,0 l/m 0 min 0 min 0 W/m 33,5 km/h (5 Bft)
25.08.2015 00:46 17,5 C 16,1 C 77 % 0 lf 1002,7 hPa 0,0 l/m 0 min 0 min 0 W/m 25,1 km/h (4 Bft)
25.08.2015 00:48 17,5 C 16,1 C 77 % 0 lf 1002,7 hPa 0,0 l/m 0 min 0 min 0 W/m 31,4 km/h (5 Bft)
25.08.2015 00:50 17,5 C 16,1 C 77 % 0 lf 1002,7 hPa 0,0 l/m 0 min 0 min 0 W/m 37,7 km/h (5 Bft)
25.08.2015 00:52 17,5 C 16,1 C 77 % 0 lf 1002,7 hPa 0,0 l/m 0 min 0 min 0 W/m 48,1 km/h (6 Bft)
25.08.2015 00:54 17,5 C 16,1 C 77 % 0 lf 1002,7 hPa 0,0 l/m 0 min 0 min 0 W/m 48,1 km/h (6 Bft)
25.08.2015 00:56 17,6 C 16,1 C 76 % 0 lf 1002,7 hPa 0,0 l/m 0 min 0 min 0 W/m 35,6 km/h (5 Bft)
25.08.2015 00:58 17,6 C 16,1 C 76 % 0 lf 1002,7 hPa 0,0 l/m 0 min 0 min 0 W/m 39,7 km/h (6 Bft)
25.08.2015 01:00 17,6 C 16,1 C 76 % 0 lf 1002,8 hPa 0,0 l/m 0 min 0 min 0 W/m 54,4 km/h (7 Bft)
25.08.2015 01:02 17,6 C 16,1 C 76 % 0 lf 1002,7 hPa 0,0 l/m 0 min 0 min 0 W/m 39,7 km/h (6 Bft)
25.08.2015 01:04 17,6 C 16,1 C 76 % 0 lf 1002,7 hPa 0,0 l/m 0 min 0 min 0 W/m 35,6 km/h (5 Bft)
25.08.2015 01:06 17,6 C 16,1 C 76 % 0 lf 1002,7 hPa 0,0 l/m 0 min 0 min 0 W/m 43,9 km/h (6 Bft)
25.08.2015 01:08 17,5 C 16,1 C 76 % 0 lf 1002,8 hPa 0,0 l/m 0 min 0 min 0 W/m 43,9 km/h (6 Bft)
25.08.2015 01:10 17,5 C 16,1 C 76 % 0 lf 1002,9 hPa 0,0 l/m 0 min 0 min 0 W/m 41,8 km/h (6 Bft)
25.08.2015 01:12 17,5 C 15,6 C 76 % 0 lf 1003,0 hPa 0,0 l/m 0 min 0 min 0 W/m 29,3 km/h (5 Bft)
25.08.2015 01:14 17,4 C 15,6 C 76 % 0 lf 1003,0 hPa 0,0 l/m 0 min 0 min 0 W/m 39,7 km/h (6 Bft)
25.08.2015 01:16 17,4 C 15,6 C 76 % 0 lf 1003,0 hPa 0,0 l/m 0 min 0 min 0 W/m 35,6 km/h (5 Bft)
25.08.2015 01:18 17,3 C 15,6 C 77 % 0 lf 1003,0 hPa 0,0 l/m 0 min 0 min 0 W/m 39,7 km/h (6 Bft)
25.08.2015 01:20 17,2 C 15,6 C 77 % 0 lf 1002,9 hPa 0,0 l/m 0 min 0 min 0 W/m 46,0 km/h (6 Bft)
25.08.2015 01:22 17,2 C 15,6 C 77 % 0 lf 1002,9 hPa 0,0 l/m 0 min 0 min 0 W/m 25,1 km/h (4 Bft)
25.08.2015 01:24 17,1 C 15,6 C 77 % 0 lf 1003,0 hPa 0,0 l/m 0 min 0 min 0 W/m 27,2 km/h (4 Bft)
25.08.2015 01:26 17,1 C 15,0 C 77 % 0 lf 1003,0 hPa 0,0 l/m 0 min 0 min 0 W/m 23,0 km/h (4 Bft)
25.08.2015 01:28 17,0 C 15,0 C 78 % 0 lf 1003,0 hPa 0,0 l/m 0 min 0 min 0 W/m 37,7 km/h (5 Bft)
25.08.2015 01:30 17,0 C 15,0 C 78 % 0 lf 1003,0 hPa 0,0 l/m 0 min 0 min 0 W/m 43,9 km/h (6 Bft)
25.08.2015 01:32 16,9 C 15,0 C 77 % 0 lf 1003,0 hPa 0,0 l/m 0 min 0 min 0 W/m 35,6 km/h (5 Bft)
25.08.2015 01:34 16,9 C 15,0 C 77 % 0 lf 1003,2 hPa 0,0 l/m 0 min 0 min 0 W/m 35,6 km/h (5 Bft)
25.08.2015 01:36 16,9 C 15,0 C 77 % 0 lf 1003,2 hPa 0,0 l/m 0 min 0 min 0 W/m 33,5 km/h (5 Bft)
25.08.2015 01:38 16,8 C 15,0 C 77 % 0 lf 1003,0 hPa 0,0 l/m 0 min 0 min 0 W/m 37,7 km/h (5 Bft)
25.08.2015 01:40 16,8 C 15,6 C 77 % 0 lf 1003,1 hPa 0,0 l/m 0 min 0 min 0 W/m 33,5 km/h (5 Bft)
25.08.2015 01:42 16,8 C 15,6 C 77 % 0 lf 1003,1 hPa 0,0 l/m 0 min 0 min 0 W/m 29,3 km/h (5 Bft)
25.08.2015 01:44 16,8 C 15,6 C 77 % 0 lf 1003,1 hPa 0,0 l/m 0 min 0 min 0 W/m 27,2 km/h (4 Bft)
25.08.2015 01:46 16,8 C 15,6 C 77 % 0 lf 1003,2 hPa 0,0 l/m 0 min 0 min 0 W/m 27,2 km/h (4 Bft)
25.08.2015 01:48 16,8 C 15,6 C 77 % 0 lf 1003,3 hPa 0,0 l/m 0 min 0 min 0 W/m 46,0 km/h (6 Bft)
25.08.2015 01:50 16,8 C 15,6 C 77 % 0 lf 1003,3 hPa 0,0 l/m 0 min 0 min 0 W/m 31,4 km/h (5 Bft)
25.08.2015 01:52 16,8 C 15,6 C 77 % 0 lf 1003,3 hPa 0,0 l/m 0 min 0 min 0 W/m 29,3 km/h (5 Bft)
25.08.2015 01:54 16,8 C 15,6 C 77 % 0 lf 1003,3 hPa 0,0 l/m 0 min 0 min 0 W/m 20,9 km/h (4 Bft)
25.08.2015 01:56 16,8 C 15,6 C 77 % 0 lf 1003,4 hPa 0,0 l/m 0 min 0 min 0 W/m 23,0 km/h (4 Bft)
25.08.2015 01:58 16,8 C 15,6 C 77 % 0 lf 1003,3 hPa 0,0 l/m 0 min 0 min 0 W/m 33,5 km/h (5 Bft)
25.08.2015 02:00 16,8 C 15,6 C 77 % 0 lf 1003,3 hPa 0,0 l/m 0 min 0 min 0 W/m 33,5 km/h (5 Bft)
25.08.2015 02:02 16,8 C 15,0 C 77 % 0 lf 1003,3 hPa 0,0 l/m 0 min 0 min 0 W/m 37,7 km/h (5 Bft)
25.08.2015 02:04 16,7 C 15,0 C 77 % 0 lf 1003,3 hPa 0,0 l/m 0 min 0 min 0 W/m 50,2 km/h (7 Bft)
25.08.2015 02:06 16,7 C 15,0 C 77 % 0 lf 1003,4 hPa 0,0 l/m 0 min 0 min 0 W/m 33,5 km/h (5 Bft)
25.08.2015 02:08 16,7 C 15,0 C 77 % 0 lf 1003,4 hPa 0,0 l/m 0 min 0 min 0 W/m 46,0 km/h (6 Bft)
25.08.2015 02:10 16,7 C 15,0 C 77 % 0 lf 1003,3 hPa 0,0 l/m 0 min 0 min 0 W/m 46,0 km/h (6 Bft)
25.08.2015 02:12 16,7 C 15,0 C 77 % 0 lf 1003,4 hPa 0,0 l/m 0 min 0 min 0 W/m 29,3 km/h (5 Bft)
25.08.2015 02:14 16,7 C 15,0 C 77 % 0 lf 1003,4 hPa 0,0 l/m 0 min 0 min 0 W/m 33,5 km/h (5 Bft)
25.08.2015 02:16 16,6 C 15,0 C 77 % 0 lf 1003,5 hPa 0,0 l/m 0 min 0 min 0 W/m 25,1 km/h (4 Bft)
25.08.2015 02:18 16,6 C 15,0 C 77 % 0 lf 1003,4 hPa 0,0 l/m 0 min 0 min 0 W/m 27,2 km/h (4 Bft)
25.08.2015 02:20 16,6 C 15,0 C 77 % 0 lf 1003,6 hPa 0,0 l/m 0 min 0 min 0 W/m 18,8 km/h (3 Bft)
25.08.2015 02:22 16,6 C 15,0 C 77 % 0 lf 1003,5 hPa 0,0 l/m 0 min 0 min 0 W/m 35,6 km/h (5 Bft)
25.08.2015 02:24 16,6 C 15,0 C 77 % 0 lf 1003,6 hPa 0,0 l/m 0 min 0 min 0 W/m 25,1 km/h (4 Bft)
25.08.2015 02:26 16,6 C 15,0 C 77 % 0 lf 1003,6 hPa 0,0 l/m 0 min 0 min 0 W/m 37,7 km/h (5 Bft)
25.08.2015 02:28 16,6 C 15,0 C 77 % 0 lf 1003,6 hPa 0,0 l/m 0 min 0 min 0 W/m 25,1 km/h (4 Bft)
25.08.2015 02:30 16,5 C 15,0 C 77 % 0 lf 1003,6 hPa 0,0 l/m 0 min 0 min 0 W/m 20,9 km/h (4 Bft)
25.08.2015 02:32 16,5 C 15,0 C 77 % 0 lf 1003,6 hPa 0,0 l/m 0 min 0 min 0 W/m 20,9 km/h (4 Bft)
25.08.2015 02:34 16,5 C 15,0 C 77 % 0 lf 1003,6 hPa 0,0 l/m 0 min 0 min 0 W/m 29,3 km/h (5 Bft)
25.08.2015 02:36 16,4 C 15,0 C 78 % 0 lf 1003,6 hPa 0,0 l/m 0 min 0 min 0 W/m 20,9 km/h (4 Bft)
25.08.2015 02:38 16,4 C 15,0 C 78 % 0 lf 1003,6 hPa 0,0 l/m 0 min 0 min 0 W/m 16,7 km/h (3 Bft)
25.08.2015 02:40 16,4 C 15,0 C 78 % 0 lf 1003,6 hPa 0,0 l/m 0 min 0 min 0 W/m 23,0 km/h (4 Bft)
25.08.2015 02:42 16,4 C 15,0 C 78 % 0 lf 1003,6 hPa 0,0 l/m 0 min 0 min 0 W/m 35,6 km/h (5 Bft)
25.08.2015 02:44 16,4 C 15,0 C 78 % 0 lf 1003,7 hPa 0,0 l/m 0 min 0 min 0 W/m 25,1 km/h (4 Bft)
25.08.2015 02:46 16,4 C 15,0 C 78 % 0 lf 1003,6 hPa 0,0 l/m 0 min 0 min 0 W/m 14,6 km/h (3 Bft)
25.08.2015 02:48 16,3 C 15,0 C 78 % 0 lf 1003,6 hPa 0,0 l/m 0 min 0 min 0 W/m 35,6 km/h (5 Bft)
25.08.2015 02:50 16,3 C 15,0 C 78 % 0 lf 1003,6 hPa 0,0 l/m 0 min 0 min 0 W/m 41,8 km/h (6 Bft)
25.08.2015 02:52 16,3 C 14,4 C 79 % 0 lf 1003,8 hPa 0,0 l/m 0 min 0 min 0 W/m 31,4 km/h (5 Bft)
25.08.2015 02:54 16,2 C 14,4 C 79 % 0 lf 1003,7 hPa 0,0 l/m 0 min 0 min 0 W/m 39,7 km/h (6 Bft)
25.08.2015 02:56 16,2 C 14,4 C 79 % 0 lf 1003,7 hPa 0,0 l/m 0 min 0 min 0 W/m 25,1 km/h (4 Bft)
25.08.2015 02:58 16,1 C 14,4 C 79 % 0 lf 1003,7 hPa 0,0 l/m 0 min 0 min 0 W/m 27,2 km/h (4 Bft)
25.08.2015 03:00 16,1 C 14,4 C 80 % 0 lf 1003,7 hPa 0,0 l/m 0 min 0 min 0 W/m 37,7 km/h (5 Bft)
25.08.2015 03:02 16,1 C 14,4 C 80 % 0 lf 1003,7 hPa 0,0 l/m 0 min 0 min 0 W/m 46,0 km/h (6 Bft)
25.08.2015 03:04 16,0 C 14,4 C 80 % 0 lf 1003,8 hPa 0,0 l/m 0 min 0 min 0 W/m 29,3 km/h (5 Bft)
25.08.2015 03:06 15,9 C 14,4 C 80 % 0 lf 1003,7 hPa 0,0 l/m 0 min 0 min 0 W/m 31,4 km/h (5 Bft)
25.08.2015 03:08 15,9 C 14,4 C 80 % 0 lf 1003,7 hPa 0,0 l/m 0 min 0 min 0 W/m 23,0 km/h (4 Bft)
25.08.2015 03:10 15,9 C 14,4 C 80 % 0 lf 1003,7 hPa 0,0 l/m 0 min 0 min 0 W/m 37,7 km/h (5 Bft)
25.08.2015 03:12 15,9 C 14,4 C 80 % 0 lf 1003,9 hPa 0,0 l/m 0 min 0 min 0 W/m 37,7 km/h (5 Bft)
25.08.2015 03:14 15,8 C 14,4 C 81 % 0 lf 1003,9 hPa 0,0 l/m 0 min 0 min 0 W/m 35,6 km/h (5 Bft)
25.08.2015 03:16 15,8 C 14,4 C 81 % 0 lf 1003,8 hPa 0,0 l/m 0 min 0 min 0 W/m 35,6 km/h (5 Bft)
25.08.2015 03:18 15,8 C 14,4 C 81 % 0 lf 1003,9 hPa 0,0 l/m 0 min 0 min 0 W/m 37,7 km/h (5 Bft)
25.08.2015 03:20 15,8 C 14,4 C 81 % 0 lf 1003,9 hPa 0,0 l/m 0 min 0 min 0 W/m 20,9 km/h (4 Bft)
25.08.2015 03:22 15,8 C 14,4 C 81 % 0 lf 1003,8 hPa 0,0 l/m 0 min 0 min 0 W/m 37,7 km/h (5 Bft)
25.08.2015 03:24 15,8 C 14,4 C 81 % 0 lf 1003,7 hPa 0,0 l/m 0 min 0 min 0 W/m 27,2 km/h (4 Bft)
25.08.2015 03:26 15,8 C 14,4 C 81 % 0 lf 1003,7 hPa 0,0 l/m 0 min 0 min 0 W/m 46,0 km/h (6 Bft)
25.08.2015 03:28 15,8 C 14,4 C 81 % 0 lf 1003,8 hPa 0,0 l/m 0 min 0 min 0 W/m 39,7 km/h (6 Bft)
25.08.2015 03:30 15,8 C 14,4 C 81 % 0 lf 1003,8 hPa 0,0 l/m 0 min 0 min 0 W/m 41,8 km/h (6 Bft)
25.08.2015 03:32 15,8 C 14,4 C 81 % 0 lf 1003,9 hPa 0,0 l/m 0 min 0 min 0 W/m 27,2 km/h (4 Bft)
25.08.2015 03:34 15,8 C 14,4 C 82 % 0 lf 1003,9 hPa 0,0 l/m 0 min 0 min 0 W/m 43,9 km/h (6 Bft)
25.08.2015 03:36 15,8 C 14,4 C 82 % 0 lf 1003,9 hPa 0,0 l/m 0 min 0 min 0 W/m 43,9 km/h (6 Bft)
25.08.2015 03:38 15,7 C 14,4 C 82 % 0 lf 1003,8 hPa 0,0 l/m 0 min 0 min 0 W/m 46,0 km/h (6 Bft)
25.08.2015 03:40 15,7 C 14,4 C 82 % 0 lf 1004,0 hPa 0,0 l/m 0 min 0 min 0 W/m 43,9 km/h (6 Bft)
25.08.2015 03:42 15,7 C 13,9 C 82 % 0 lf 1003,9 hPa 0,0 l/m 0 min 0 min 0 W/m 35,6 km/h (5 Bft)
25.08.2015 03:44 15,6 C 13,9 C 82 % 0 lf 1004,1 hPa 0,0 l/m 0 min 0 min 0 W/m 37,7 km/h (5 Bft)
25.08.2015 03:46 15,6 C 13,9 C 83 % 0 lf 1004,1 hPa 0,0 l/m 0 min 0 min 0 W/m 33,5 km/h (5 Bft)
25.08.2015 03:48 15,6 C 13,9 C 83 % 0 lf 1004,1 hPa 0,0 l/m 0 min 0 min 0 W/m 41,8 km/h (6 Bft)
25.08.2015 03:50 15,6 C 13,9 C 83 % 0 lf 1004,0 hPa 0,0 l/m 0 min 0 min 0 W/m 33,5 km/h (5 Bft)
25.08.2015 03:52 15,6 C 13,9 C 84 % 0 lf 1004,1 hPa 0,0 l/m 0 min 0 min 0 W/m 23,0 km/h (4 Bft)
25.08.2015 03:54 15,5 C 13,9 C 84 % 0 lf 1004,1 hPa 0,0 l/m 0 min 0 min 0 W/m 27,2 km/h (4 Bft)
25.08.2015 03:56 15,5 C 13,9 C 84 % 0 lf 1004,1 hPa 0,0 l/m 0 min 0 min 0 W/m 50,2 km/h (7 Bft)
25.08.2015 03:58 15,4 C 13,9 C 84 % 0 lf 1004,2 hPa 0,0 l/m 0 min 0 min 0 W/m 41,8 km/h (6 Bft)
25.08.2015 04:00 15,4 C 13,9 C 84 % 0 lf 1004,2 hPa 0,0 l/m 0 min 0 min 0 W/m 33,5 km/h (5 Bft)
25.08.2015 04:02 15,4 C 13,9 C 85 % 0 lf 1004,2 hPa 0,0 l/m 0 min 0 min 0 W/m 23,0 km/h (4 Bft)
25.08.2015 04:04 15,4 C 13,9 C 85 % 3 lf 1004,2 hPa 0,0 l/m 0 min 0 min 0 W/m 31,4 km/h (5 Bft)
25.08.2015 04:06 15,4 C 13,3 C 85 % 14 lf 1004,2 hPa 0,0 l/m 0 min 2 min 0 W/m 31,4 km/h (5 Bft)
25.08.2015 04:08 15,3 C 12,8 C 86 % 15 lf 1004,1 hPa 0,0 l/m 0 min 2 min 0 W/m 33,5 km/h (5 Bft)
25.08.2015 04:10 15,3 C 12,8 C 86 % 15 lf 1004,2 hPa 0,0 l/m 0 min 2 min 0 W/m 27,2 km/h (4 Bft)
25.08.2015 04:12 15,3 C 12,8 C 86 % 15 lf 1004,1 hPa 0,0 l/m 0 min 2 min 0 W/m 31,4 km/h (5 Bft)
25.08.2015 04:14 15,2 C 12,8 C 87 % 15 lf 1004,2 hPa 0,0 l/m 0 min 2 min 0 W/m 33,5 km/h (5 Bft)
25.08.2015 04:16 15,2 C 12,8 C 87 % 15 lf 1004,3 hPa 0,0 l/m 0 min 2 min 0 W/m 31,4 km/h (5 Bft)
25.08.2015 04:18 15,1 C 12,8 C 88 % 15 lf 1004,4 hPa 0,0 l/m 0 min 2 min 0 W/m 31,4 km/h (5 Bft)
25.08.2015 04:20 15,0 C 12,8 C 88 % 15 lf 1004,4 hPa 0,0 l/m 0 min 2 min 0 W/m 29,3 km/h (5 Bft)
25.08.2015 04:22 15,0 C 12,8 C 88 % 15 lf 1004,4 hPa 0,0 l/m 0 min 2 min 0 W/m 33,5 km/h (5 Bft)
25.08.2015 04:24 14,9 C 12,8 C 88 % 15 lf 1004,4 hPa 0,0 l/m 0 min 0 min 0 W/m 20,9 km/h (4 Bft)
25.08.2015 04:26 14,9 C 12,8 C 88 % 15 lf 1004,4 hPa 0,0 l/m 0 min 0 min 0 W/m 27,2 km/h (4 Bft)
25.08.2015 04:28 14,9 C 12,8 C 89 % 13 lf 1004,5 hPa 0,0 l/m 0 min 0 min 0 W/m 31,4 km/h (5 Bft)
25.08.2015 04:30 14,9 C 12,8 C 89 % 13 lf 1004,5 hPa 0,0 l/m 0 min 0 min 0 W/m 23,0 km/h (4 Bft)
25.08.2015 04:32 14,9 C 12,8 C 89 % 15 lf 1004,5 hPa 0,0 l/m 0 min 2 min 0 W/m 27,2 km/h (4 Bft)
25.08.2015 04:34 14,9 C 12,8 C 89 % 15 lf 1004,5 hPa 0,0 l/m 0 min 2 min 0 W/m 18,8 km/h (3 Bft)
25.08.2015 04:36 14,8 C 12,8 C 89 % 15 lf 1004,6 hPa 0,0 l/m 0 min 2 min 0 W/m 27,2 km/h (4 Bft)
25.08.2015 04:38 14,8 C 12,8 C 89 % 15 lf 1004,6 hPa 0,2 l/m 0 min 2 min 0 W/m 27,2 km/h (4 Bft)
25.08.2015 04:40 14,8 C 12,8 C 89 % 15 lf 1004,7 hPa 0,0 l/m 0 min 0 min 0 W/m 37,7 km/h (5 Bft)
25.08.2015 04:42 14,8 C 12,8 C 90 % 15 lf 1004,6 hPa 0,0 l/m 0 min 2 min 0 W/m 35,6 km/h (5 Bft)
25.08.2015 04:44 14,8 C 12,8 C 90 % 15 lf 1004,7 hPa 0,0 l/m 0 min 2 min 0 W/m 25,1 km/h (4 Bft)
25.08.2015 04:46 14,8 C 12,8 C 90 % 15 lf 1004,6 hPa 0,0 l/m 0 min 2 min 0 W/m 25,1 km/h (4 Bft)
25.08.2015 04:48 14,8 C 12,8 C 90 % 15 lf 1004,7 hPa 0,0 l/m 0 min 2 min 0 W/m 27,2 km/h (4 Bft)
25.08.2015 04:50 14,7 C 12,8 C 90 % 15 lf 1004,7 hPa 0,0 l/m 0 min 2 min 0 W/m 27,2 km/h (4 Bft)
25.08.2015 04:52 14,7 C 12,8 C 90 % 15 lf 1004,7 hPa 0,0 l/m 0 min 2 min 0 W/m 25,1 km/h (4 Bft)
25.08.2015 04:54 14,8 C 12,8 C 91 % 15 lf 1004,7 hPa 0,0 l/m 0 min 2 min 0 W/m 27,2 km/h (4 Bft)
25.08.2015 04:56 14,8 C 12,8 C 91 % 15 lf 1004,7 hPa 0,0 l/m 0 min 2 min 0 W/m 35,6 km/h (5 Bft)
25.08.2015 04:58 14,7 C 12,8 C 91 % 15 lf 1004,8 hPa 0,0 l/m 0 min 2 min 0 W/m 31,4 km/h (5 Bft)
25.08.2015 05:00 14,7 C 12,8 C 91 % 15 lf 1004,8 hPa 0,0 l/m 0 min 2 min 0 W/m 29,3 km/h (5 Bft)
25.08.2015 05:02 14,7 C 12,8 C 91 % 15 lf 1004,9 hPa 0,0 l/m 0 min 2 min 0 W/m 31,4 km/h (5 Bft)
25.08.2015 05:04 14,7 C 12,8 C 91 % 15 lf 1004,9 hPa 0,0 l/m 0 min 2 min 0 W/m 33,5 km/h (5 Bft)
25.08.2015 05:06 14,7 C 12,8 C 92 % 15 lf 1005,0 hPa 0,0 l/m 0 min 2 min 0 W/m 29,3 km/h (5 Bft)
25.08.2015 05:08 14,7 C 12,8 C 92 % 15 lf 1005,0 hPa 0,2 l/m 0 min 2 min 0 W/m 33,5 km/h (5 Bft)
25.08.2015 05:10 14,7 C 12,8 C 92 % 15 lf 1005,1 hPa 0,0 l/m 0 min 2 min 0 W/m 27,2 km/h (4 Bft)
25.08.2015 05:12 14,7 C 12,8 C 92 % 15 lf 1005,1 hPa 0,0 l/m 0 min 2 min 0 W/m 33,5 km/h (5 Bft)
25.08.2015 05:14 14,7 C 12,8 C 92 % 15 lf 1005,1 hPa 0,0 l/m 0 min 2 min 0 W/m 31,4 km/h (5 Bft)
25.08.2015 05:16 14,7 C 12,8 C 92 % 15 lf 1005,1 hPa 0,2 l/m 0 min 2 min 0 W/m 25,1 km/h (4 Bft)
25.08.2015 05:18 14,7 C 12,8 C 93 % 15 lf 1005,1 hPa 0,0 l/m 0 min 2 min 0 W/m 43,9 km/h (6 Bft)
25.08.2015 05:20 14,7 C 12,8 C 93 % 15 lf 1005,2 hPa 0,0 l/m 0 min 2 min 0 W/m 37,7 km/h (5 Bft)
25.08.2015 05:22 14,7 C 12,8 C 93 % 15 lf 1005,2 hPa 0,0 l/m 0 min 2 min 0 W/m 33,5 km/h (5 Bft)
25.08.2015 05:24 14,7 C 12,8 C 93 % 15 lf 1005,4 hPa 0,4 l/m 0 min 2 min 0 W/m 33,5 km/h (5 Bft)
25.08.2015 05:26 14,7 C 12,8 C 93 % 15 lf 1005,4 hPa 0,4 l/m 0 min 2 min 0 W/m 25,1 km/h (4 Bft)
25.08.2015 05:28 14,7 C 12,8 C 94 % 15 lf 1005,5 hPa 0,4 l/m 0 min 2 min 0 W/m 25,1 km/h (4 Bft)
25.08.2015 05:30 14,7 C 12,8 C 94 % 15 lf 1005,6 hPa 0,0 l/m 0 min 2 min 0 W/m 27,2 km/h (4 Bft)
25.08.2015 05:32 14,8 C 13,3 C 94 % 15 lf 1005,6 hPa 0,2 l/m 0 min 2 min 0 W/m 29,3 km/h (5 Bft)
25.08.2015 05:34 14,8 C 13,3 C 94 % 15 lf 1005,6 hPa 0,0 l/m 0 min 2 min 0 W/m 16,7 km/h (3 Bft)
25.08.2015 05:36 14,8 C 13,3 C 94 % 15 lf 1005,7 hPa 0,2 l/m 0 min 2 min 0 W/m 25,1 km/h (4 Bft)
25.08.2015 05:38 14,8 C 13,3 C 94 % 15 lf 1005,8 hPa 0,0 l/m 0 min 2 min 0 W/m 25,1 km/h (4 Bft)
25.08.2015 05:40 14,8 C 13,3 C 94 % 15 lf 1005,8 hPa 0,2 l/m 0 min 2 min 0 W/m 35,6 km/h (5 Bft)
25.08.2015 05:42 14,8 C 13,3 C 94 % 15 lf 1005,9 hPa 0,2 l/m 0 min 2 min 0 W/m 20,9 km/h (4 Bft)
25.08.2015 05:44 14,8 C 13,3 C 95 % 15 lf 1005,9 hPa 0,0 l/m 0 min 2 min 0 W/m 33,5 km/h (5 Bft)
25.08.2015 05:46 14,8 C 13,3 C 95 % 15 lf 1005,9 hPa 0,0 l/m 0 min 2 min 0 W/m 29,3 km/h (5 Bft)
25.08.2015 05:48 14,8 C 13,3 C 95 % 15 lf 1005,9 hPa 0,0 l/m 0 min 2 min 0 W/m 33,5 km/h (5 Bft)
25.08.2015 05:50 14,8 C 13,3 C 95 % 15 lf 1005,9 hPa 0,0 l/m 0 min 2 min 0 W/m 29,3 km/h (5 Bft)
25.08.2015 05:52 14,8 C 13,3 C 95 % 15 lf 1006,0 hPa 0,0 l/m 0 min 2 min 0 W/m 31,4 km/h (5 Bft)
25.08.2015 05:54 14,8 C 13,3 C 95 % 15 lf 1006,1 hPa 0,0 l/m 0 min 2 min 0 W/m 31,4 km/h (5 Bft)
25.08.2015 05:56 14,8 C 13,3 C 95 % 15 lf 1006,1 hPa 0,0 l/m 0 min 2 min 0 W/m 20,9 km/h (4 Bft)
25.08.2015 05:58 14,8 C 13,3 C 95 % 15 lf 1006,2 hPa 0,2 l/m 0 min 2 min 0 W/m 25,1 km/h (4 Bft)
25.08.2015 06:00 14,8 C 13,3 C 95 % 15 lf 1006,2 hPa 0,0 l/m 0 min 2 min 0 W/m 25,1 km/h (4 Bft)
25.08.2015 06:02 14,8 C 13,3 C 95 % 15 lf 1006,2 hPa 0,0 l/m 0 min 2 min 0 W/m 37,7 km/h (5 Bft)
25.08.2015 06:05 14,8 C 13,3 C 95 % 15 lf 1006,3 hPa 0,0 l/m 0 min 2 min 0 W/m 35,6 km/h (5 Bft)
25.08.2015 06:07 14,8 C 13,3 C 95 % 15 lf 1006,4 hPa 0,0 l/m 0 min 2 min 0 W/m 35,6 km/h (5 Bft)
25.08.2015 06:08 14,8 C 13,3 C 95 % 15 lf 1006,4 hPa 0,0 l/m 0 min 1 min 0 W/m 27,2 km/h (4 Bft)
25.08.2015 06:10 14,8 C 13,3 C 95 % 15 lf 1006,5 hPa 0,0 l/m 0 min 2 min 0 W/m 37,7 km/h (5 Bft)
25.08.2015 06:12 14,8 C 13,3 C 95 % 15 lf 1006,6 hPa 0,0 l/m 0 min 2 min 0 W/m 29,3 km/h (5 Bft)
25.08.2015 06:14 14,8 C 13,3 C 95 % 15 lf 1006,6 hPa 0,0 l/m 0 min 2 min 0 W/m 25,1 km/h (4 Bft)
25.08.2015 06:16 14,8 C 13,3 C 95 % 15 lf 1006,7 hPa 0,0 l/m 0 min 2 min 0 W/m 23,0 km/h (4 Bft)
25.08.2015 06:18 14,9 C 13,3 C 95 % 15 lf 1006,9 hPa 0,0 l/m 0 min 2 min 0 W/m 27,2 km/h (4 Bft)
25.08.2015 06:20 14,8 C 13,3 C 96 % 15 lf 1006,9 hPa 0,0 l/m 0 min 2 min 0 W/m 25,1 km/h (4 Bft)
25.08.2015 06:22 14,9 C 13,3 C 96 % 15 lf 1006,9 hPa 0,0 l/m 0 min 2 min 0 W/m 23,0 km/h (4 Bft)
25.08.2015 06:24 14,9 C 13,3 C 96 % 15 lf 1007,0 hPa 0,0 l/m 0 min 2 min 0 W/m 29,3 km/h (5 Bft)
25.08.2015 06:26 14,9 C 13,3 C 96 % 15 lf 1007,1 hPa 0,0 l/m 0 min 2 min 0 W/m 27,2 km/h (4 Bft)
25.08.2015 06:28 14,9 C 13,3 C 96 % 15 lf 1007,2 hPa 0,2 l/m 0 min 2 min 0 W/m 31,4 km/h (5 Bft)
25.08.2015 06:30 14,9 C 13,3 C 96 % 15 lf 1007,2 hPa 0,0 l/m 0 min 2 min 0 W/m 27,2 km/h (4 Bft)
25.08.2015 06:32 14,9 C 13,3 C 96 % 15 lf 1007,2 hPa 0,0 l/m 0 min 2 min 0 W/m 18,8 km/h (3 Bft)
25.08.2015 06:34 14,9 C 13,3 C 96 % 15 lf 1007,2 hPa 0,0 l/m 0 min 2 min 0 W/m 31,4 km/h (5 Bft)
25.08.2015 06:36 14,9 C 13,3 C 96 % 15 lf 1007,3 hPa 0,0 l/m 0 min 0 min 0 W/m 31,4 km/h (5 Bft)
25.08.2015 06:38 14,9 C 13,3 C 96 % 15 lf 1007,4 hPa 0,0 l/m 0 min 2 min 0 W/m 33,5 km/h (5 Bft)
25.08.2015 06:40 14,9 C 13,3 C 96 % 15 lf 1007,5 hPa 0,0 l/m 0 min 0 min 0 W/m 31,4 km/h (5 Bft)
25.08.2015 06:42 14,8 C 13,3 C 96 % 15 lf 1007,6 hPa 0,0 l/m 0 min 2 min 0 W/m 25,1 km/h (4 Bft)
25.08.2015 06:44 14,8 C 13,3 C 96 % 15 lf 1007,5 hPa 0,0 l/m 0 min 2 min 0 W/m 20,9 km/h (4 Bft)
25.08.2015 06:46 14,8 C 13,3 C 96 % 15 lf 1007,6 hPa 0,0 l/m 0 min 2 min 0 W/m 31,4 km/h (5 Bft)
25.08.2015 06:48 14,8 C 13,3 C 96 % 15 lf 1007,7 hPa 0,0 l/m 0 min 0 min 0 W/m 29,3 km/h (5 Bft)
25.08.2015 06:50 14,8 C 13,3 C 96 % 15 lf 1007,7 hPa 0,0 l/m 0 min 0 min 0 W/m 35,6 km/h (5 Bft)
25.08.2015 06:52 14,8 C 13,3 C 96 % 15 lf 1007,8 hPa 0,0 l/m 0 min 2 min 0 W/m 33,5 km/h (5 Bft)
25.08.2015 06:54 14,8 C 13,3 C 96 % 15 lf 1007,9 hPa 0,0 l/m 0 min 2 min 0 W/m 27,2 km/h (4 Bft)
25.08.2015 06:56 14,8 C 13,3 C 96 % 15 lf 1008,0 hPa 0,0 l/m 0 min 2 min 0 W/m 25,1 km/h (4 Bft)
25.08.2015 06:58 14,8 C 13,3 C 96 % 15 lf 1008,0 hPa 0,0 l/m 0 min 2 min 0 W/m 23,0 km/h (4 Bft)
25.08.2015 07:00 14,8 C 13,3 C 96 % 15 lf 1008,1 hPa 0,0 l/m 0 min 2 min 0 W/m 27,2 km/h (4 Bft)
25.08.2015 07:02 14,8 C 13,3 C 96 % 15 lf 1008,1 hPa 0,0 l/m 0 min 2 min 0 W/m 25,1 km/h (4 Bft)
25.08.2015 07:04 14,8 C 13,3 C 96 % 15 lf 1008,1 hPa 0,0 l/m 0 min 0 min 0 W/m 31,4 km/h (5 Bft)
25.08.2015 07:06 14,8 C 13,3 C 96 % 15 lf 1008,3 hPa 0,0 l/m 0 min 2 min 0 W/m 23,0 km/h (4 Bft)
25.08.2015 07:08 14,8 C 13,3 C 96 % 15 lf 1008,3 hPa 0,0 l/m 0 min 0 min 0 W/m 37,7 km/h (5 Bft)
25.08.2015 07:10 14,8 C 13,3 C 96 % 15 lf 1008,4 hPa 0,0 l/m 0 min 2 min 2 W/m 41,8 km/h (6 Bft)
25.08.2015 07:12 14,7 C 13,3 C 96 % 15 lf 1008,5 hPa 0,0 l/m 0 min 0 min 6 W/m 27,2 km/h (4 Bft)
25.08.2015 07:14 14,7 C 13,3 C 96 % 15 lf 1008,5 hPa 0,0 l/m 0 min 0 min 7 W/m 37,7 km/h (5 Bft)
25.08.2015 07:16 14,7 C 13,3 C 96 % 15 lf 1008,7 hPa 0,0 l/m 0 min 0 min 8 W/m 27,2 km/h (4 Bft)
25.08.2015 07:18 14,7 C 13,3 C 96 % 15 lf 1008,6 hPa 0,0 l/m 0 min 0 min 9 W/m 27,2 km/h (4 Bft)
25.08.2015 07:20 14,7 C 13,3 C 96 % 15 lf 1008,8 hPa 0,0 l/m 0 min 0 min 11 W/m 31,4 km/h (5 Bft)
25.08.2015 07:22 14,7 C 13,3 C 96 % 15 lf 1008,8 hPa 0,0 l/m 0 min 0 min 12 W/m 25,1 km/h (4 Bft)
25.08.2015 07:24 14,7 C 13,3 C 96 % 15 lf 1008,8 hPa 0,0 l/m 0 min 0 min 12 W/m 33,5 km/h (5 Bft)
25.08.2015 07:26 14,7 C 13,3 C 96 % 15 lf 1008,8 hPa 0,0 l/m 0 min 0 min 13 W/m 25,1 km/h (4 Bft)
25.08.2015 07:28 14,7 C 13,3 C 96 % 15 lf 1008,9 hPa 0,0 l/m 0 min 0 min 18 W/m 25,1 km/h (4 Bft)
25.08.2015 07:30 14,7 C 13,3 C 96 % 15 lf 1009,0 hPa 0,0 l/m 0 min 0 min 18 W/m 25,1 km/h (4 Bft)
25.08.2015 07:32 14,7 C 13,3 C 96 % 15 lf 1009,0 hPa 0,0 l/m 0 min 2 min 20 W/m 31,4 km/h (5 Bft)
25.08.2015 07:34 14,7 C 13,3 C 96 % 15 lf 1009,1 hPa 0,0 l/m 0 min 0 min 19 W/m 23,0 km/h (4 Bft)
25.08.2015 07:36 14,7 C 13,3 C 96 % 15 lf 1009,1 hPa 0,0 l/m 0 min 0 min 18 W/m 25,1 km/h (4 Bft)
25.08.2015 07:38 14,6 C 13,3 C 96 % 15 lf 1009,1 hPa 0,0 l/m 0 min 0 min 19 W/m 29,3 km/h (5 Bft)
25.08.2015 07:40 14,6 C 13,3 C 96 % 15 lf 1009,2 hPa 0,0 l/m 0 min 0 min 21 W/m 27,2 km/h (4 Bft)
25.08.2015 07:42 14,6 C 12,8 C 96 % 15 lf 1009,2 hPa 0,0 l/m 0 min 0 min 22 W/m 23,0 km/h (4 Bft)
25.08.2015 07:44 14,6 C 13,3 C 96 % 15 lf 1009,4 hPa 0,0 l/m 0 min 0 min 24 W/m 20,9 km/h (4 Bft)
25.08.2015 07:46 14,6 C 13,3 C 96 % 15 lf 1009,3 hPa 0,0 l/m 0 min 0 min 24 W/m 25,1 km/h (4 Bft)
25.08.2015 07:48 14,6 C 13,3 C 96 % 15 lf 1009,4 hPa 0,0 l/m 0 min 0 min 23 W/m 25,1 km/h (4 Bft)
25.08.2015 07:50 14,6 C 12,8 C 96 % 15 lf 1009,4 hPa 0,0 l/m 0 min 0 min 25 W/m 29,3 km/h (5 Bft)
25.08.2015 07:52 14,6 C 13,3 C 96 % 15 lf 1009,4 hPa 0,0 l/m 0 min 0 min 31 W/m 27,2 km/h (4 Bft)
25.08.2015 07:54 14,6 C 13,3 C 96 % 15 lf 1009,4 hPa 0,0 l/m 0 min 2 min 43 W/m 31,4 km/h (5 Bft)
25.08.2015 07:56 14,6 C 13,3 C 96 % 15 lf 1009,5 hPa 0,0 l/m 0 min 0 min 52 W/m 31,4 km/h (5 Bft)
25.08.2015 07:58 14,6 C 13,3 C 96 % 15 lf 1009,5 hPa 0,0 l/m 0 min 0 min 61 W/m 23,0 km/h (4 Bft)
25.08.2015 08:00 14,6 C 13,3 C 96 % 15 lf 1009,6 hPa 0,0 l/m 0 min 0 min 64 W/m 31,4 km/h (5 Bft)
25.08.2015 08:02 14,6 C 13,3 C 96 % 15 lf 1009,7 hPa 0,0 l/m 0 min 0 min 63 W/m 31,4 km/h (5 Bft)
25.08.2015 08:04 14,7 C 13,3 C 96 % 15 lf 1009,6 hPa 0,0 l/m 0 min 0 min 62 W/m 31,4 km/h (5 Bft)
25.08.2015 08:06 14,6 C 13,3 C 96 % 15 lf 1009,7 hPa 0,0 l/m 0 min 0 min 63 W/m 29,3 km/h (5 Bft)
25.08.2015 08:08 14,6 C 13,3 C 96 % 15 lf 1009,7 hPa 0,0 l/m 0 min 0 min 64 W/m 29,3 km/h (5 Bft)
25.08.2015 08:10 14,6 C 13,3 C 96 % 15 lf 1009,8 hPa 0,0 l/m 0 min 0 min 61 W/m 27,2 km/h (4 Bft)
25.08.2015 08:12 14,6 C 13,3 C 96 % 15 lf 1009,8 hPa 0,0 l/m 0 min 0 min 64 W/m 29,3 km/h (5 Bft)
25.08.2015 08:14 14,7 C 13,3 C 96 % 15 lf 1009,9 hPa 0,0 l/m 0 min 0 min 70 W/m 27,2 km/h (4 Bft)
25.08.2015 08:16 14,7 C 13,3 C 96 % 15 lf 1009,9 hPa 0,0 l/m 0 min 0 min 77 W/m 25,1 km/h (4 Bft)
25.08.2015 08:18 14,7 C 13,3 C 96 % 15 lf 1010,0 hPa 0,0 l/m 0 min 0 min 85 W/m 23,0 km/h (4 Bft)
25.08.2015 08:20 14,7 C 13,3 C 96 % 14 lf 1010,1 hPa 0,0 l/m 0 min 0 min 98 W/m 27,2 km/h (4 Bft)
25.08.2015 08:22 14,7 C 13,3 C 96 % 14 lf 1010,1 hPa 0,0 l/m 0 min 2 min 106 W/m 18,8 km/h (3 Bft)
25.08.2015 08:24 14,7 C 13,3 C 96 % 13 lf 1010,3 hPa 0,0 l/m 0 min 0 min 103 W/m 25,1 km/h (4 Bft)
25.08.2015 08:26 14,8 C 13,3 C 96 % 13 lf 1010,2 hPa 0,0 l/m 0 min 0 min 99 W/m 29,3 km/h (5 Bft)
25.08.2015 08:28 14,8 C 13,3 C 96 % 12 lf 1010,3 hPa 0,0 l/m 0 min 0 min 95 W/m 25,1 km/h (4 Bft)
25.08.2015 08:30 14,8 C 13,3 C 95 % 12 lf 1010,3 hPa 0,0 l/m 0 min 0 min 98 W/m 23,0 km/h (4 Bft)
25.08.2015 08:32 14,8 C 13,3 C 95 % 10 lf 1010,4 hPa 0,0 l/m 0 min 2 min 92 W/m 23,0 km/h (4 Bft)
25.08.2015 08:34 14,8 C 13,3 C 95 % 9 lf 1010,4 hPa 0,0 l/m 0 min 0 min 91 W/m 35,6 km/h (5 Bft)
25.08.2015 08:36 14,8 C 13,3 C 95 % 7 lf 1010,4 hPa 0,0 l/m 0 min 2 min 79 W/m 37,7 km/h (5 Bft)
25.08.2015 08:38 14,9 C 13,3 C 95 % 5 lf 1010,4 hPa 0,0 l/m 0 min 0 min 77 W/m 20,9 km/h (4 Bft)
25.08.2015 08:40 14,9 C 13,3 C 95 % 4 lf 1010,4 hPa 0,0 l/m 0 min 0 min 80 W/m 33,5 km/h (5 Bft)
25.08.2015 08:42 14,9 C 13,3 C 95 % 3 lf 1010,4 hPa 0,0 l/m 0 min 0 min 89 W/m 31,4 km/h (5 Bft)
25.08.2015 08:44 14,9 C 13,3 C 95 % 3 lf 1010,5 hPa 0,0 l/m 0 min 2 min 89 W/m 29,3 km/h (5 Bft)
25.08.2015 08:46 14,9 C 13,3 C 95 % 1 lf 1010,6 hPa 0,0 l/m 0 min 2 min 90 W/m 27,2 km/h (4 Bft)
25.08.2015 08:48 14,9 C 13,3 C 95 % 1 lf 1010,5 hPa 0,0 l/m 0 min 2 min 97 W/m 27,2 km/h (4 Bft)
25.08.2015 08:50 14,9 C 13,3 C 95 % 0 lf 1010,6 hPa 0,0 l/m 0 min 0 min 106 W/m 31,4 km/h (5 Bft)
25.08.2015 08:52 15,0 C 13,3 C 95 % 0 lf 1010,7 hPa 0,0 l/m 0 min 0 min 115 W/m 35,6 km/h (5 Bft)
25.08.2015 08:54 15,0 C 13,3 C 94 % 0 lf 1010,6 hPa 0,0 l/m 0 min 2 min 121 W/m 29,3 km/h (5 Bft)
25.08.2015 08:56 15,1 C 13,3 C 94 % 0 lf 1010,7 hPa 0,0 l/m 0 min 0 min 122 W/m 27,2 km/h (4 Bft)
25.08.2015 08:58 15,1 C 13,3 C 94 % 0 lf 1010,8 hPa 0,0 l/m 0 min 2 min 120 W/m 33,5 km/h (5 Bft)
25.08.2015 09:00 15,1 C 13,3 C 94 % 0 lf 1010,8 hPa 0,0 l/m 0 min 0 min 117 W/m 29,3 km/h (5 Bft)
25.08.2015 09:02 15,1 C 13,3 C 94 % 0 lf 1010,7 hPa 0,0 l/m 0 min 0 min 113 W/m 25,1 km/h (4 Bft)
25.08.2015 09:04 15,2 C 13,3 C 94 % 0 lf 1010,9 hPa 0,0 l/m 0 min 0 min 115 W/m 33,5 km/h (5 Bft)
25.08.2015 09:06 15,2 C 13,3 C 94 % 0 lf 1010,9 hPa 0,0 l/m 0 min 0 min 121 W/m 37,7 km/h (5 Bft)
25.08.2015 09:08 15,2 C 13,3 C 94 % 0 lf 1011,0 hPa 0,0 l/m 0 min 0 min 131 W/m 31,4 km/h (5 Bft)
25.08.2015 09:10 15,2 C 13,9 C 93 % 0 lf 1011,0 hPa 0,0 l/m 0 min 0 min 139 W/m 29,3 km/h (5 Bft)
25.08.2015 09:12 15,3 C 13,9 C 93 % 0 lf 1011,1 hPa 0,0 l/m 0 min 0 min 139 W/m 29,3 km/h (5 Bft)
25.08.2015 09:14 15,3 C 13,9 C 93 % 0 lf 1011,2 hPa 0,0 l/m 0 min 0 min 148 W/m 33,5 km/h (5 Bft)
25.08.2015 09:16 15,3 C 13,9 C 93 % 0 lf 1011,2 hPa 0,0 l/m 0 min 2 min 197 W/m 33,5 km/h (5 Bft)
25.08.2015 09:18 15,4 C 13,9 C 93 % 0 lf 1011,2 hPa 0,0 l/m 2 min 2 min 230 W/m 29,3 km/h (5 Bft)
25.08.2015 09:20 15,4 C 13,9 C 93 % 0 lf 1011,3 hPa 0,0 l/m 2 min 0 min 204 W/m 35,6 km/h (5 Bft)
25.08.2015 09:22 15,5 C 13,9 C 93 % 0 lf 1011,3 hPa 0,0 l/m 0 min 0 min 196 W/m 33,5 km/h (5 Bft)
25.08.2015 09:24 15,6 C 13,9 C 92 % 0 lf 1011,3 hPa 0,0 l/m 0 min 0 min 177 W/m 33,5 km/h (5 Bft)
25.08.2015 09:26 15,6 C 13,9 C 92 % 0 lf 1011,5 hPa 0,0 l/m 2 min 0 min 230 W/m 25,1 km/h (4 Bft)
25.08.2015 09:28 15,6 C 13,9 C 92 % 0 lf 1011,5 hPa 0,0 l/m 2 min 0 min 255 W/m 27,2 km/h (4 Bft)
25.08.2015 09:30 15,7 C 13,9 C 92 % 0 lf 1011,5 hPa 0,0 l/m 2 min 0 min 257 W/m 31,4 km/h (5 Bft)
25.08.2015 09:32 15,8 C 13,9 C 92 % 0 lf 1011,5 hPa 0,0 l/m 2 min 0 min 240 W/m 35,6 km/h (5 Bft)
25.08.2015 09:34 15,8 C 14,4 C 92 % 0 lf 1011,5 hPa 0,0 l/m 2 min 0 min 259 W/m 25,1 km/h (4 Bft)
25.08.2015 09:36 15,9 C 14,4 C 91 % 0 lf 1011,5 hPa 0,0 l/m 2 min 0 min 247 W/m 25,1 km/h (4 Bft)
25.08.2015 09:38 15,9 C 14,4 C 91 % 0 lf 1011,5 hPa 0,0 l/m 0 min 0 min 211 W/m 29,3 km/h (5 Bft)
25.08.2015 09:40 16,0 C 13,9 C 91 % 0 lf 1011,6 hPa 0,0 l/m 0 min 0 min 187 W/m 33,5 km/h (5 Bft)
25.08.2015 09:42 16,0 C 13,9 C 91 % 0 lf 1011,6 hPa 0,0 l/m 0 min 0 min 167 W/m 25,1 km/h (4 Bft)
25.08.2015 09:44 16,1 C 13,9 C 90 % 0 lf 1011,6 hPa 0,0 l/m 0 min 0 min 194 W/m 27,2 km/h (4 Bft)
25.08.2015 09:46 16,1 C 13,9 C 90 % 0 lf 1011,6 hPa 0,0 l/m 2 min 0 min 248 W/m 25,1 km/h (4 Bft)
25.08.2015 09:48 16,1 C 14,4 C 90 % 0 lf 1011,6 hPa 0,0 l/m 2 min 0 min 245 W/m 31,4 km/h (5 Bft)
25.08.2015 09:50 16,2 C 15,6 C 90 % 0 lf 1011,7 hPa 0,0 l/m 2 min 0 min 400 W/m 43,9 km/h (6 Bft)
25.08.2015 09:52 16,2 C 15,0 C 90 % 0 lf 1011,7 hPa 0,0 l/m 2 min 0 min 270 W/m 27,2 km/h (4 Bft)
25.08.2015 09:54 16,2 C 14,4 C 89 % 0 lf 1011,8 hPa 0,0 l/m 0 min 0 min 141 W/m 31,4 km/h (5 Bft)
25.08.2015 09:56 16,2 C 15,0 C 89 % 0 lf 1011,9 hPa 0,0 l/m 0 min 0 min 201 W/m 31,4 km/h (5 Bft)
25.08.2015 09:58 16,3 C 16,1 C 89 % 0 lf 1011,9 hPa 0,0 l/m 2 min 0 min 446 W/m 25,1 km/h (4 Bft)
25.08.2015 10:00 16,4 C 16,7 C 89 % 0 lf 1012,0 hPa 0,0 l/m 2 min 0 min 546 W/m 37,7 km/h (5 Bft)
25.08.2015 10:02 16,5 C 17,2 C 89 % 0 lf 1012,0 hPa 0,0 l/m 2 min 0 min 587 W/m 31,4 km/h (5 Bft)
25.08.2015 10:04 16,7 C 17,2 C 89 % 0 lf 1012,0 hPa 0,0 l/m 2 min 0 min 652 W/m 29,3 km/h (5 Bft)
25.08.2015 10:06 16,8 C 17,8 C 88 % 0 lf 1011,9 hPa 0,0 l/m 2 min 0 min 454 W/m 29,3 km/h (5 Bft)
25.08.2015 10:08 16,9 C 17,8 C 88 % 0 lf 1011,9 hPa 0,0 l/m 2 min 0 min 677 W/m 37,7 km/h (5 Bft)
25.08.2015 10:10 17,1 C 18,9 C 88 % 0 lf 1012,0 hPa 0,0 l/m 2 min 0 min 708 W/m 23,0 km/h (4 Bft)
25.08.2015 10:12 17,3 C 18,9 C 87 % 0 lf 1012,0 hPa 0,0 l/m 2 min 0 min 749 W/m 33,5 km/h (5 Bft)
25.08.2015 10:14 17,4 C 18,9 C 87 % 0 lf 1012,0 hPa 0,0 l/m 2 min 0 min 642 W/m 37,7 km/h (5 Bft)
25.08.2015 10:16 17,5 C 18,3 C 86 % 0 lf 1012,1 hPa 0,0 l/m 2 min 0 min 405 W/m 33,5 km/h (5 Bft)
25.08.2015 10:18 17,6 C 18,3 C 85 % 0 lf 1012,1 hPa 0,0 l/m 2 min 0 min 387 W/m 23,0 km/h (4 Bft)
25.08.2015 10:20 17,6 C 17,8 C 84 % 0 lf 1012,1 hPa 0,0 l/m 2 min 0 min 343 W/m 33,5 km/h (5 Bft)
25.08.2015 10:22 17,7 C 17,2 C 84 % 0 lf 1012,2 hPa 0,0 l/m 2 min 0 min 303 W/m 27,2 km/h (4 Bft)
25.08.2015 10:24 17,7 C 17,2 C 84 % 0 lf 1012,2 hPa 0,0 l/m 2 min 0 min 278 W/m 37,7 km/h (5 Bft)
25.08.2015 10:26 17,6 C 16,7 C 83 % 0 lf 1012,3 hPa 0,0 l/m 0 min 0 min 255 W/m 35,6 km/h (5 Bft)
25.08.2015 10:28 17,6 C 16,7 C 83 % 0 lf 1012,3 hPa 0,0 l/m 2 min 0 min 289 W/m 35,6 km/h (5 Bft)
25.08.2015 10:30 17,6 C 16,7 C 83 % 0 lf 1012,3 hPa 0,0 l/m 0 min 0 min 264 W/m 25,1 km/h (4 Bft)
25.08.2015 10:32 17,5 C 16,7 C 83 % 0 lf 1012,3 hPa 0,0 l/m 0 min 0 min 272 W/m 37,7 km/h (5 Bft)
25.08.2015 10:34 17,4 C 16,7 C 83 % 0 lf 1012,3 hPa 0,0 l/m 0 min 0 min 268 W/m 37,7 km/h (5 Bft)
25.08.2015 10:36 17,4 C 16,7 C 83 % 0 lf 1012,4 hPa 0,0 l/m 2 min 0 min 306 W/m 39,7 km/h (6 Bft)
25.08.2015 10:38 17,3 C 16,1 C 83 % 0 lf 1012,3 hPa 0,0 l/m 2 min 0 min 315 W/m 43,9 km/h (6 Bft)
25.08.2015 10:40 17,3 C 16,1 C 83 % 0 lf 1012,3 hPa 0,0 l/m 2 min 0 min 298 W/m 43,9 km/h (6 Bft)
25.08.2015 10:42 17,3 C 16,7 C 83 % 0 lf 1012,5 hPa 0,0 l/m 0 min 0 min 281 W/m 41,8 km/h (6 Bft)
25.08.2015 10:44 17,2 C 16,7 C 83 % 0 lf 1012,4 hPa 0,0 l/m 2 min 0 min 323 W/m 33,5 km/h (5 Bft)
25.08.2015 10:46 17,2 C 16,7 C 83 % 0 lf 1012,5 hPa 0,0 l/m 2 min 0 min 325 W/m 25,1 km/h (4 Bft)
25.08.2015 10:48 17,3 C 16,7 C 83 % 0 lf 1012,5 hPa 0,0 l/m 2 min 0 min 322 W/m 31,4 km/h (5 Bft)
25.08.2015 10:50 17,3 C 17,2 C 84 % 0 lf 1012,5 hPa 0,0 l/m 2 min 0 min 358 W/m 25,1 km/h (4 Bft)
25.08.2015 10:52 17,3 C 17,2 C 83 % 0 lf 1012,6 hPa 0,0 l/m 2 min 0 min 360 W/m 43,9 km/h (6 Bft)
25.08.2015 10:54 17,3 C 17,2 C 83 % 0 lf 1012,6 hPa 0,0 l/m 2 min 0 min 387 W/m 35,6 km/h (5 Bft)
25.08.2015 10:56 17,4 C 17,2 C 83 % 0 lf 1012,6 hPa 0,0 l/m 2 min 0 min 364 W/m 37,7 km/h (5 Bft)
25.08.2015 10:58 17,4 C 17,2 C 83 % 0 lf 1012,6 hPa 0,0 l/m 2 min 0 min 338 W/m 35,6 km/h (5 Bft)
25.08.2015 11:00 17,4 C 17,2 C 82 % 0 lf 1012,5 hPa 0,0 l/m 2 min 0 min 345 W/m 39,7 km/h (6 Bft)
25.08.2015 11:02 17,4 C 16,7 C 82 % 0 lf 1012,6 hPa 0,0 l/m 2 min 0 min 331 W/m 39,7 km/h (6 Bft)
25.08.2015 11:04 17,4 C 16,7 C 82 % 0 lf 1012,6 hPa 0,0 l/m 0 min 0 min 281 W/m 41,8 km/h (6 Bft)
25.08.2015 11:06 17,4 C 16,7 C 82 % 0 lf 1012,7 hPa 0,0 l/m 0 min 0 min 271 W/m 29,3 km/h (5 Bft)
25.08.2015 11:08 17,4 C 16,7 C 82 % 0 lf 1012,7 hPa 0,0 l/m 0 min 0 min 279 W/m 35,6 km/h (5 Bft)
25.08.2015 11:10 17,4 C 16,7 C 83 % 0 lf 1012,8 hPa 0,0 l/m 0 min 0 min 289 W/m 29,3 km/h (5 Bft)
25.08.2015 11:12 17,4 C 16,7 C 83 % 0 lf 1012,9 hPa 0,0 l/m 0 min 0 min 283 W/m 39,7 km/h (6 Bft)
25.08.2015 11:14 17,4 C 16,7 C 82 % 0 lf 1012,9 hPa 0,0 l/m 0 min 0 min 275 W/m 39,7 km/h (6 Bft)
25.08.2015 11:16 17,4 C 16,7 C 82 % 0 lf 1013,0 hPa 0,0 l/m 0 min 0 min 311 W/m 29,3 km/h (5 Bft)
25.08.2015 11:18 17,4 C 16,7 C 83 % 0 lf 1013,0 hPa 0,0 l/m 0 min 0 min 307 W/m 29,3 km/h (5 Bft)
25.08.2015 11:20 17,4 C 16,7 C 82 % 0 lf 1013,0 hPa 0,0 l/m 0 min 0 min 306 W/m 31,4 km/h (5 Bft)
25.08.2015 11:22 17,4 C 17,8 C 82 % 0 lf 1013,0 hPa 0,0 l/m 2 min 0 min 362 W/m 37,7 km/h (5 Bft)
25.08.2015 11:24 17,4 C 17,2 C 82 % 0 lf 1013,0 hPa 0,0 l/m 2 min 0 min 328 W/m 33,5 km/h (5 Bft)
25.08.2015 11:26 17,4 C 17,2 C 82 % 0 lf 1013,0 hPa 0,0 l/m 2 min 0 min 333 W/m 35,6 km/h (5 Bft)
25.08.2015 11:28 17,4 C 17,2 C 82 % 0 lf 1013,0 hPa 0,0 l/m 2 min 0 min 364 W/m 31,4 km/h (5 Bft)
25.08.2015 11:30 17,5 C 17,2 C 82 % 0 lf 1013,0 hPa 0,0 l/m 2 min 0 min 422 W/m 43,9 km/h (6 Bft)
25.08.2015 11:32 17,5 C 17,2 C 81 % 0 lf 1013,0 hPa 0,0 l/m 2 min 0 min 383 W/m 43,9 km/h (6 Bft)
25.08.2015 11:34 17,5 C 17,2 C 81 % 0 lf 1013,1 hPa 0,0 l/m 2 min 0 min 363 W/m 43,9 km/h (6 Bft)
25.08.2015 11:36 17,5 C 17,2 C 81 % 0 lf 1013,0 hPa 0,0 l/m 0 min 0 min 294 W/m 29,3 km/h (5 Bft)
25.08.2015 11:38 17,5 C 16,7 C 81 % 0 lf 1013,1 hPa 0,0 l/m 0 min 0 min 280 W/m 37,7 km/h (5 Bft)
25.08.2015 11:40 17,4 C 16,7 C 81 % 0 lf 1013,2 hPa 0,0 l/m 0 min 0 min 277 W/m 33,5 km/h (5 Bft)
25.08.2015 11:42 17,4 C 16,7 C 82 % 0 lf 1013,3 hPa 0,0 l/m 0 min 0 min 297 W/m 25,1 km/h (4 Bft)
25.08.2015 11:44 17,4 C 17,2 C 82 % 0 lf 1013,3 hPa 0,0 l/m 0 min 0 min 333 W/m 31,4 km/h (5 Bft)
25.08.2015 11:46 17,4 C 17,2 C 82 % 0 lf 1013,3 hPa 0,0 l/m 2 min 0 min 373 W/m 31,4 km/h (5 Bft)
25.08.2015 11:48 17,5 C 17,8 C 82 % 0 lf 1013,3 hPa 0,0 l/m 2 min 0 min 386 W/m 35,6 km/h (5 Bft)
25.08.2015 11:50 17,5 C 18,3 C 82 % 0 lf 1013,3 hPa 0,0 l/m 2 min 0 min 425 W/m 31,4 km/h (5 Bft)
25.08.2015 11:52 17,6 C 18,3 C 82 % 0 lf 1013,3 hPa 0,0 l/m 2 min 0 min 436 W/m 33,5 km/h (5 Bft)
25.08.2015 11:54 17,6 C 19,4 C 82 % 0 lf 1013,3 hPa 0,0 l/m 2 min 0 min 492 W/m 18,8 km/h (3 Bft)
25.08.2015 11:56 17,7 C 18,9 C 81 % 0 lf 1013,3 hPa 0,0 l/m 2 min 0 min 528 W/m 43,9 km/h (6 Bft)
25.08.2015 11:58 17,8 C 18,9 C 81 % 0 lf 1013,3 hPa 0,0 l/m 2 min 0 min 438 W/m 18,8 km/h (3 Bft)
25.08.2015 12:00 17,9 C 19,4 C 81 % 0 lf 1013,3 hPa 0,0 l/m 2 min 0 min 418 W/m 31,4 km/h (5 Bft)
25.08.2015 12:02 17,9 C 18,9 C 81 % 0 lf 1013,3 hPa 0,0 l/m 0 min 0 min 325 W/m 27,2 km/h (4 Bft)
25.08.2015 12:06 18,1 C 20,0 C 80 % 0 lf 1013,3 hPa 0,0 l/m 2 min 0 min 810 W/m 31,4 km/h (5 Bft)
25.08.2015 12:08 18,2 C 20,6 C 80 % 0 lf 1013,3 hPa 0,0 l/m 2 min 0 min 634 W/m 31,4 km/h (5 Bft)
25.08.2015 12:10 18,4 C 21,7 C 81 % 0 lf 1013,4 hPa 0,0 l/m 2 min 0 min 527 W/m 23,0 km/h (4 Bft)
25.08.2015 12:12 18,5 C 21,7 C 81 % 0 lf 1013,4 hPa 0,0 l/m 0 min 0 min 220 W/m 35,6 km/h (5 Bft)
25.08.2015 12:14 18,6 C 21,1 C 78 % 0 lf 1013,4 hPa 0,0 l/m 0 min 0 min 220 W/m 31,4 km/h (5 Bft)
25.08.2015 12:16 18,7 C 21,1 C 78 % 0 lf 1013,4 hPa 0,0 l/m 0 min 0 min 350 W/m 35,6 km/h (5 Bft)
25.08.2015 12:18 18,9 C 21,1 C 77 % 0 lf 1013,4 hPa 0,0 l/m 0 min 0 min 304 W/m 37,7 km/h (5 Bft)
25.08.2015 12:20 18,9 C 20,0 C 76 % 0 lf 1013,4 hPa 0,0 l/m 0 min 0 min 273 W/m 31,4 km/h (5 Bft)
25.08.2015 12:22 19,0 C 19,4 C 76 % 0 lf 1013,4 hPa 0,0 l/m 0 min 0 min 203 W/m 27,2 km/h (4 Bft)
25.08.2015 12:24 19,0 C 18,9 C 75 % 0 lf 1013,4 hPa 0,0 l/m 0 min 0 min 262 W/m 29,3 km/h (5 Bft)
25.08.2015 12:26 18,9 C 18,9 C 75 % 0 lf 1013,5 hPa 0,0 l/m 0 min 0 min 334 W/m 29,3 km/h (5 Bft)
25.08.2015 12:28 18,9 C 20,0 C 76 % 0 lf 1013,4 hPa 0,0 l/m 2 min 0 min 599 W/m 29,3 km/h (5 Bft)
25.08.2015 12:30 19,0 C 20,0 C 76 % 0 lf 1013,5 hPa 0,0 l/m 2 min 0 min 796 W/m 43,9 km/h (6 Bft)
25.08.2015 12:32 19,0 C 20,0 C 75 % 0 lf 1013,5 hPa 0,0 l/m 2 min 0 min 796 W/m 37,7 km/h (5 Bft)
25.08.2015 12:34 19,1 C 20,6 C 75 % 0 lf 1013,5 hPa 0,0 l/m 2 min 0 min 872 W/m 33,5 km/h (5 Bft)
25.08.2015 12:36 19,2 C 20,6 C 75 % 0 lf 1013,5 hPa 0,0 l/m 2 min 0 min 879 W/m 39,7 km/h (6 Bft)
25.08.2015 12:38 19,2 C 20,6 C 74 % 0 lf 1013,7 hPa 0,0 l/m 2 min 0 min 879 W/m 37,7 km/h (5 Bft)
25.08.2015 12:40 19,3 C 21,1 C 74 % 0 lf 1013,6 hPa 0,0 l/m 2 min 0 min 879 W/m 33,5 km/h (5 Bft)
25.08.2015 12:42 19,4 C 20,6 C 74 % 0 lf 1013,6 hPa 0,0 l/m 2 min 0 min 879 W/m 29,3 km/h (5 Bft)
25.08.2015 12:44 19,4 C 20,6 C 75 % 0 lf 1013,6 hPa 0,0 l/m 2 min 0 min 526 W/m 31,4 km/h (5 Bft)
25.08.2015 12:46 19,4 C 19,4 C 74 % 0 lf 1013,7 hPa 0,0 l/m 0 min 0 min 351 W/m 33,5 km/h (5 Bft)
25.08.2015 12:48 19,4 C 18,9 C 73 % 0 lf 1013,7 hPa 0,0 l/m 0 min 0 min 308 W/m 37,7 km/h (5 Bft)
25.08.2015 12:50 19,4 C 18,3 C 73 % 0 lf 1013,7 hPa 0,0 l/m 0 min 0 min 313 W/m 25,1 km/h (4 Bft)
25.08.2015 12:52 19,3 C 18,3 C 74 % 0 lf 1013,7 hPa 0,0 l/m 0 min 0 min 287 W/m 31,4 km/h (5 Bft)
25.08.2015 12:54 19,3 C 18,3 C 74 % 0 lf 1013,8 hPa 0,0 l/m 0 min 0 min 261 W/m 25,1 km/h (4 Bft)
25.08.2015 12:56 19,2 C 17,8 C 74 % 0 lf 1013,7 hPa 0,0 l/m 0 min 0 min 353 W/m 20,9 km/h (4 Bft)
25.08.2015 12:58 19,2 C 17,8 C 74 % 0 lf 1013,8 hPa 0,0 l/m 0 min 0 min 263 W/m 29,3 km/h (5 Bft)
25.08.2015 13:00 19,1 C 17,8 C 73 % 0 lf 1013,8 hPa 0,0 l/m 0 min 0 min 271 W/m 37,7 km/h (5 Bft)
25.08.2015 13:02 18,9 C 17,8 C 74 % 0 lf 1013,8 hPa 0,0 l/m 0 min 0 min 367 W/m 31,4 km/h (5 Bft)
25.08.2015 13:04 18,9 C 18,9 C 75 % 0 lf 1013,9 hPa 0,0 l/m 2 min 0 min 498 W/m 33,5 km/h (5 Bft)
25.08.2015 13:06 19,0 C 19,4 C 75 % 0 lf 1013,9 hPa 0,0 l/m 2 min 0 min 987 W/m 23,0 km/h (4 Bft)
25.08.2015 13:08 19,1 C 19,4 C 75 % 0 lf 1013,9 hPa 0,0 l/m 2 min 0 min 689 W/m 23,0 km/h (4 Bft)
25.08.2015 13:10 19,1 C 18,9 C 74 % 0 lf 1013,8 hPa 0,0 l/m 0 min 0 min 283 W/m 29,3 km/h (5 Bft)
25.08.2015 13:12 19,1 C 18,9 C 74 % 0 lf 1013,9 hPa 0,0 l/m 0 min 0 min 285 W/m 31,4 km/h (5 Bft)
25.08.2015 13:14 19,1 C 19,4 C 74 % 0 lf 1013,9 hPa 0,0 l/m 2 min 0 min 544 W/m 33,5 km/h (5 Bft)
25.08.2015 13:16 19,2 C 19,4 C 74 % 0 lf 1013,9 hPa 0,0 l/m 2 min 0 min 906 W/m 29,3 km/h (5 Bft)
25.08.2015 13:18 19,2 C 19,4 C 73 % 0 lf 1013,9 hPa 0,0 l/m 2 min 0 min 919 W/m 37,7 km/h (5 Bft)
25.08.2015 13:20 19,2 C 18,9 C 72 % 0 lf 1013,9 hPa 0,0 l/m 0 min 0 min 323 W/m 33,5 km/h (5 Bft)
25.08.2015 13:22 19,2 C 18,9 C 72 % 0 lf 1014,0 hPa 0,0 l/m 2 min 0 min 379 W/m 31,4 km/h (5 Bft)
25.08.2015 13:24 19,2 C 19,4 C 73 % 0 lf 1014,0 hPa 0,0 l/m 2 min 0 min 890 W/m 37,7 km/h (5 Bft)
25.08.2015 13:26 19,3 C 18,9 C 73 % 0 lf 1014,0 hPa 0,0 l/m 2 min 0 min 786 W/m 37,7 km/h (5 Bft)
25.08.2015 13:28 19,3 C 19,4 C 73 % 0 lf 1014,0 hPa 0,0 l/m 2 min 0 min 392 W/m 25,1 km/h (4 Bft)
25.08.2015 13:30 19,4 C 20,0 C 73 % 0 lf 1014,0 hPa 0,0 l/m 2 min 0 min 810 W/m 27,2 km/h (4 Bft)
25.08.2015 13:32 19,5 C 20,0 C 72 % 0 lf 1013,9 hPa 0,0 l/m 2 min 0 min 837 W/m 41,8 km/h (6 Bft)
25.08.2015 13:34 19,6 C 20,0 C 71 % 0 lf 1014,0 hPa 0,0 l/m 2 min 0 min 870 W/m 46,0 km/h (6 Bft)
25.08.2015 13:36 19,7 C 20,0 C 71 % 0 lf 1014,0 hPa 0,0 l/m 2 min 0 min 827 W/m 37,7 km/h (5 Bft)
25.08.2015 13:38 19,9 C 20,0 C 71 % 0 lf 1013,9 hPa 0,0 l/m 2 min 0 min 818 W/m 39,7 km/h (6 Bft)
25.08.2015 13:40 20,0 C 20,0 C 71 % 0 lf 1014,1 hPa 0,0 l/m 2 min 0 min 781 W/m 27,2 km/h (4 Bft)
25.08.2015 13:42 20,0 C 19,4 C 69 % 0 lf 1014,1 hPa 0,0 l/m 0 min 0 min 340 W/m 39,7 km/h (6 Bft)
25.08.2015 13:44 19,9 C 18,9 C 68 % 0 lf 1014,2 hPa 0,0 l/m 0 min 0 min 319 W/m 41,8 km/h (6 Bft)
25.08.2015 13:46 19,9 C 18,9 C 69 % 0 lf 1014,1 hPa 0,0 l/m 0 min 0 min 323 W/m 33,5 km/h (5 Bft)
25.08.2015 13:48 19,9 C 18,3 C 66 % 0 lf 1014,2 hPa 0,0 l/m 0 min 0 min 323 W/m 41,8 km/h (6 Bft)
25.08.2015 13:50 19,8 C 18,3 C 66 % 0 lf 1014,2 hPa 0,0 l/m 0 min 0 min 324 W/m 31,4 km/h (5 Bft)
25.08.2015 13:52 19,7 C 18,3 C 66 % 0 lf 1014,2 hPa 0,0 l/m 0 min 0 min 341 W/m 33,5 km/h (5 Bft)
25.08.2015 13:54 19,7 C 18,3 C 65 % 0 lf 1014,2 hPa 0,0 l/m 0 min 0 min 343 W/m 37,7 km/h (5 Bft)
25.08.2015 13:56 19,5 C 18,3 C 65 % 0 lf 1014,2 hPa 0,0 l/m 2 min 0 min 397 W/m 29,3 km/h (5 Bft)
25.08.2015 13:58 19,4 C 18,3 C 65 % 0 lf 1014,2 hPa 0,0 l/m 2 min 0 min 388 W/m 29,3 km/h (5 Bft)
25.08.2015 14:00 19,4 C 18,3 C 67 % 0 lf 1014,2 hPa 0,0 l/m 2 min 0 min 429 W/m 25,1 km/h (4 Bft)
25.08.2015 14:02 19,3 C 18,3 C 67 % 0 lf 1014,2 hPa 0,0 l/m 0 min 0 min 351 W/m 31,4 km/h (5 Bft)
25.08.2015 14:04 19,3 C 18,3 C 67 % 0 lf 1014,2 hPa 0,0 l/m 0 min 0 min 366 W/m 33,5 km/h (5 Bft)
25.08.2015 14:06 19,2 C 18,3 C 67 % 0 lf 1014,2 hPa 0,0 l/m 2 min 0 min 427 W/m 29,3 km/h (5 Bft)
25.08.2015 14:08 19,2 C 18,3 C 68 % 0 lf 1014,3 hPa 0,0 l/m 2 min 0 min 480 W/m 31,4 km/h (5 Bft)
25.08.2015 14:10 19,2 C 18,9 C 68 % 0 lf 1014,3 hPa 0,0 l/m 2 min 0 min 480 W/m 25,1 km/h (4 Bft)
25.08.2015 14:12 19,3 C 18,9 C 69 % 0 lf 1014,3 hPa 0,0 l/m 2 min 0 min 480 W/m 20,9 km/h (4 Bft)
25.08.2015 14:14 19,3 C 19,4 C 69 % 0 lf 1014,3 hPa 0,0 l/m 2 min 0 min 640 W/m 25,1 km/h (4 Bft)
25.08.2015 14:16 19,4 C 18,9 C 68 % 0 lf 1014,3 hPa 0,0 l/m 2 min 0 min 757 W/m 29,3 km/h (5 Bft)
25.08.2015 14:18 19,5 C 19,4 C 68 % 0 lf 1014,3 hPa 0,0 l/m 2 min 0 min 776 W/m 29,3 km/h (5 Bft)
25.08.2015 14:20 19,6 C 19,4 C 67 % 0 lf 1014,3 hPa 0,0 l/m 2 min 0 min 782 W/m 31,4 km/h (5 Bft)
25.08.2015 14:22 19,7 C 19,4 C 66 % 0 lf 1014,2 hPa 0,0 l/m 2 min 0 min 795 W/m 29,3 km/h (5 Bft)
25.08.2015 14:24 19,8 C 18,9 C 66 % 0 lf 1014,3 hPa 0,0 l/m 2 min 0 min 544 W/m 37,7 km/h (5 Bft)
25.08.2015 14:26 19,7 C 18,3 C 64 % 0 lf 1014,3 hPa 0,0 l/m 0 min 0 min 232 W/m 39,7 km/h (6 Bft)
25.08.2015 14:28 19,7 C 18,9 C 65 % 0 lf 1014,4 hPa 0,0 l/m 0 min 0 min 241 W/m 33,5 km/h (5 Bft)
25.08.2015 14:30 19,7 C 18,9 C 65 % 0 lf 1014,3 hPa 0,0 l/m 0 min 0 min 253 W/m 46,0 km/h (6 Bft)
25.08.2015 14:32 19,8 C 18,9 C 65 % 0 lf 1014,4 hPa 0,0 l/m 2 min 0 min 780 W/m 29,3 km/h (5 Bft)
25.08.2015 14:34 19,8 C 19,4 C 66 % 0 lf 1014,4 hPa 0,0 l/m 2 min 0 min 715 W/m 35,6 km/h (5 Bft)
25.08.2015 14:36 19,9 C 18,9 C 64 % 0 lf 1014,4 hPa 0,0 l/m 2 min 0 min 695 W/m 37,7 km/h (5 Bft)
25.08.2015 14:38 19,9 C 18,9 C 63 % 0 lf 1014,4 hPa 0,0 l/m 2 min 0 min 654 W/m 35,6 km/h (5 Bft)
25.08.2015 14:40 20,0 C 18,9 C 65 % 0 lf 1014,5 hPa 0,0 l/m 2 min 0 min 622 W/m 33,5 km/h (5 Bft)
25.08.2015 14:42 20,1 C 18,9 C 65 % 0 lf 1014,5 hPa 0,0 l/m 2 min 0 min 617 W/m 35,6 km/h (5 Bft)
25.08.2015 14:44 20,2 C 19,4 C 65 % 0 lf 1014,5 hPa 0,0 l/m 2 min 0 min 721 W/m 39,7 km/h (6 Bft)
25.08.2015 14:46 20,2 C 19,4 C 65 % 0 lf 1014,5 hPa 0,0 l/m 2 min 0 min 748 W/m 23,0 km/h (4 Bft)
25.08.2015 14:48 20,3 C 19,4 C 64 % 0 lf 1014,5 hPa 0,0 l/m 2 min 0 min 512 W/m 27,2 km/h (4 Bft)
25.08.2015 14:50 20,3 C 19,4 C 63 % 0 lf 1014,5 hPa 0,0 l/m 2 min 0 min 536 W/m 33,5 km/h (5 Bft)
25.08.2015 14:52 20,4 C 19,4 C 63 % 0 lf 1014,5 hPa 0,0 l/m 2 min 0 min 654 W/m 29,3 km/h (5 Bft)
25.08.2015 14:54 20,3 C 18,9 C 62 % 0 lf 1014,5 hPa 0,0 l/m 0 min 0 min 209 W/m 33,5 km/h (5 Bft)
25.08.2015 14:56 20,2 C 18,3 C 61 % 0 lf 1014,4 hPa 0,0 l/m 0 min 0 min 224 W/m 35,6 km/h (5 Bft)
25.08.2015 14:58 20,2 C 18,3 C 61 % 0 lf 1014,5 hPa 0,0 l/m 0 min 0 min 250 W/m 31,4 km/h (5 Bft)
25.08.2015 15:00 20,1 C 18,3 C 62 % 0 lf 1014,5 hPa 0,0 l/m 2 min 0 min 414 W/m 25,1 km/h (4 Bft)
25.08.2015 15:02 20,0 C 18,3 C 62 % 0 lf 1014,7 hPa 0,0 l/m 2 min 0 min 452 W/m 37,7 km/h (5 Bft)
25.08.2015 15:04 19,9 C 18,3 C 62 % 0 lf 1014,5 hPa 0,0 l/m 2 min 0 min 496 W/m 39,7 km/h (6 Bft)
25.08.2015 15:06 19,9 C 18,3 C 62 % 0 lf 1014,5 hPa 0,0 l/m 0 min 0 min 347 W/m 33,5 km/h (5 Bft)
25.08.2015 15:08 19,9 C 18,9 C 63 % 0 lf 1014,5 hPa 0,0 l/m 2 min 0 min 547 W/m 20,9 km/h (4 Bft)
25.08.2015 15:10 19,9 C 19,4 C 65 % 0 lf 1014,7 hPa 0,0 l/m 2 min 0 min 612 W/m 16,7 km/h (3 Bft)
25.08.2015 15:12 19,9 C 19,4 C 65 % 0 lf 1014,6 hPa 0,0 l/m 2 min 0 min 623 W/m 37,7 km/h (5 Bft)
25.08.2015 15:14 19,9 C 18,9 C 63 % 0 lf 1014,5 hPa 0,0 l/m 2 min 0 min 396 W/m 37,7 km/h (5 Bft)
25.08.2015 15:16 19,9 C 18,9 C 64 % 0 lf 1014,6 hPa 0,0 l/m 2 min 0 min 349 W/m 33,5 km/h (5 Bft)
25.08.2015 15:18 20,0 C 18,9 C 64 % 0 lf 1014,6 hPa 0,0 l/m 2 min 0 min 725 W/m 37,7 km/h (5 Bft)
25.08.2015 15:20 20,1 C 18,9 C 64 % 0 lf 1014,6 hPa 0,0 l/m 2 min 0 min 470 W/m 33,5 km/h (5 Bft)
25.08.2015 15:22 20,1 C 19,4 C 64 % 0 lf 1014,5 hPa 0,0 l/m 2 min 0 min 717 W/m 25,1 km/h (4 Bft)
25.08.2015 15:24 20,2 C 19,4 C 63 % 0 lf 1014,6 hPa 0,0 l/m 2 min 0 min 793 W/m 41,8 km/h (6 Bft)
25.08.2015 15:26 20,2 C 19,4 C 61 % 0 lf 1014,6 hPa 0,0 l/m 2 min 0 min 793 W/m 33,5 km/h (5 Bft)
25.08.2015 15:28 20,2 C 19,4 C 62 % 0 lf 1014,7 hPa 0,0 l/m 2 min 0 min 793 W/m 23,0 km/h (4 Bft)
25.08.2015 15:30 20,3 C 20,0 C 62 % 0 lf 1014,6 hPa 0,0 l/m 2 min 0 min 823 W/m 33,5 km/h (5 Bft)
25.08.2015 15:32 20,4 C 20,0 C 61 % 0 lf 1014,5 hPa 0,0 l/m 2 min 0 min 785 W/m 29,3 km/h (5 Bft)
25.08.2015 15:34 20,6 C 20,0 C 62 % 0 lf 1014,5 hPa 0,0 l/m 2 min 0 min 733 W/m 27,2 km/h (4 Bft)
25.08.2015 15:36 20,7 C 20,0 C 61 % 0 lf 1014,4 hPa 0,0 l/m 2 min 0 min 658 W/m 23,0 km/h (4 Bft)
25.08.2015 15:38 20,7 C 19,4 C 61 % 0 lf 1014,4 hPa 0,0 l/m 2 min 0 min 416 W/m 33,5 km/h (5 Bft)
25.08.2015 15:40 20,7 C 19,4 C 59 % 0 lf 1014,5 hPa 0,0 l/m 2 min 0 min 513 W/m 31,4 km/h (5 Bft)
25.08.2015 15:42 20,8 C 19,4 C 60 % 0 lf 1014,4 hPa 0,0 l/m 2 min 0 min 571 W/m 33,5 km/h (5 Bft)
25.08.2015 15:44 20,8 C 18,9 C 59 % 0 lf 1014,4 hPa 0,0 l/m 2 min 0 min 509 W/m 29,3 km/h (5 Bft)
25.08.2015 15:46 20,8 C 19,4 C 60 % 0 lf 1014,4 hPa 0,0 l/m 0 min 0 min 288 W/m 18,8 km/h (3 Bft)
25.08.2015 15:48 20,8 C 19,4 C 61 % 0 lf 1014,4 hPa 0,0 l/m 2 min 0 min 573 W/m 14,6 km/h (3 Bft)
25.08.2015 15:50 20,8 C 19,4 C 61 % 0 lf 1014,4 hPa 0,0 l/m 2 min 0 min 747 W/m 23,0 km/h (4 Bft)
25.08.2015 15:52 20,8 C 18,9 C 61 % 0 lf 1014,3 hPa 0,0 l/m 0 min 0 min 305 W/m 20,9 km/h (4 Bft)
25.08.2015 15:54 20,8 C 18,9 C 60 % 0 lf 1014,3 hPa 0,0 l/m 2 min 0 min 359 W/m 31,4 km/h (5 Bft)
25.08.2015 15:56 20,8 C 18,9 C 59 % 0 lf 1014,3 hPa 0,0 l/m 2 min 0 min 628 W/m 31,4 km/h (5 Bft)
25.08.2015 15:58 20,7 C 19,4 C 59 % 0 lf 1014,4 hPa 0,0 l/m 2 min 0 min 709 W/m 33,5 km/h (5 Bft)
25.08.2015 16:00 20,8 C 19,4 C 59 % 0 lf 1014,3 hPa 0,0 l/m 2 min 0 min 699 W/m 27,2 km/h (4 Bft)
25.08.2015 16:02 20,8 C 20,0 C 60 % 0 lf 1014,2 hPa 0,0 l/m 2 min 0 min 696 W/m 20,9 km/h (4 Bft)
25.08.2015 16:04 20,9 C 20,0 C 60 % 0 lf 1014,1 hPa 0,0 l/m 2 min 0 min 688 W/m 29,3 km/h (5 Bft)
25.08.2015 16:05 20,9 C 20,0 C 60 % 0 lf 1014,2 hPa 0,0 l/m 1 min 0 min 677 W/m 20,9 km/h (4 Bft)
25.08.2015 16:06 20,9 C 20,0 C 61 % 0 lf 1014,3 hPa 0,0 l/m 1 min 0 min 679 W/m 27,2 km/h (4 Bft)
25.08.2015 16:07 21,0 C 20,0 C 60 % 0 lf 1014,3 hPa 0,0 l/m 1 min 0 min 682 W/m 29,3 km/h (5 Bft)
25.08.2015 16:08 21,0 C 20,0 C 60 % 0 lf 1014,3 hPa 0,0 l/m 1 min 0 min 680 W/m 23,0 km/h (4 Bft)
25.08.2015 16:10 21,1 C 20,0 C 58 % 0 lf 1014,3 hPa 0,0 l/m 2 min 0 min 671 W/m 33,5 km/h (5 Bft)
25.08.2015 16:12 21,1 C 19,4 C 59 % 0 lf 1014,4 hPa 0,0 l/m 2 min 0 min 603 W/m 35,6 km/h (5 Bft)
25.08.2015 16:14 21,1 C 19,4 C 59 % 0 lf 1014,2 hPa 0,0 l/m 2 min 0 min 339 W/m 29,3 km/h (5 Bft)
25.08.2015 16:16 21,0 C 19,4 C 59 % 0 lf 1014,3 hPa 0,0 l/m 0 min 0 min 237 W/m 25,1 km/h (4 Bft)
25.08.2015 16:18 21,0 C 20,0 C 60 % 0 lf 1014,3 hPa 0,0 l/m 0 min 0 min 244 W/m 20,9 km/h (4 Bft)
25.08.2015 16:20 21,0 C 20,0 C 60 % 0 lf 1014,3 hPa 0,0 l/m 2 min 0 min 627 W/m 33,5 km/h (5 Bft)
25.08.2015 16:22 21,0 C 20,0 C 59 % 0 lf 1014,2 hPa 0,0 l/m 2 min 0 min 479 W/m 14,6 km/h (3 Bft)
25.08.2015 16:24 21,0 C 20,0 C 61 % 0 lf 1014,3 hPa 0,0 l/m 0 min 0 min 262 W/m 27,2 km/h (4 Bft)
25.08.2015 16:29 20,8 C 19,4 C 60 % 0 lf 1014,3 hPa 0,0 l/m 0 min 0 min 254 W/m 23,0 km/h (4 Bft)
25.08.2015 16:30 20,7 C 19,4 C 59 % 0 lf 1014,3 hPa 0,0 l/m 0 min 0 min 251 W/m 35,6 km/h (5 Bft)
25.08.2015 16:32 20,7 C 18,9 C 59 % 0 lf 1014,1 hPa 0,0 l/m 0 min 0 min 251 W/m 27,2 km/h (4 Bft)
25.08.2015 16:34 20,7 C 19,4 C 59 % 0 lf 1014,1 hPa 0,0 l/m 2 min 0 min 289 W/m 25,1 km/h (4 Bft)
25.08.2015 16:36 20,6 C 19,4 C 59 % 0 lf 1014,2 hPa 0,0 l/m 2 min 0 min 339 W/m 27,2 km/h (4 Bft)
25.08.2015 16:38 20,6 C 19,4 C 58 % 0 lf 1014,2 hPa 0,0 l/m 2 min 0 min 392 W/m 29,3 km/h (5 Bft)
25.08.2015 16:40 20,6 C 19,4 C 59 % 0 lf 1014,1 hPa 0,0 l/m 2 min 0 min 400 W/m 25,1 km/h (4 Bft)
25.08.2015 16:42 20,6 C 19,4 C 60 % 0 lf 1014,2 hPa 0,0 l/m 2 min 0 min 319 W/m 20,9 km/h (4 Bft)
25.08.2015 16:44 20,6 C 19,4 C 59 % 0 lf 1014,2 hPa 0,0 l/m 2 min 0 min 363 W/m 27,2 km/h (4 Bft)
25.08.2015 16:46 20,6 C 18,9 C 59 % 0 lf 1014,2 hPa 0,0 l/m 0 min 0 min 257 W/m 25,1 km/h (4 Bft)
25.08.2015 16:48 20,6 C 18,9 C 59 % 0 lf 1014,2 hPa 0,0 l/m 2 min 0 min 336 W/m 18,8 km/h (3 Bft)
25.08.2015 16:50 20,6 C 18,9 C 59 % 0 lf 1014,2 hPa 0,0 l/m 2 min 0 min 336 W/m 12,6 km/h (3 Bft)
25.08.2015 16:52 20,6 C 18,9 C 59 % 0 lf 1014,2 hPa 0,0 l/m 2 min 0 min 336 W/m 12,6 km/h (3 Bft)
25.08.2015 16:54 20,6 C 18,9 C 59 % 0 lf 1014,2 hPa 0,0 l/m 2 min 0 min 336 W/m 12,6 km/h (3 Bft)
25.08.2015 16:56 20,6 C 18,9 C 59 % 0 lf 1014,2 hPa 0,0 l/m 2 min 0 min 336 W/m 12,6 km/h (3 Bft)
25.08.2015 16:58 20,6 C 18,9 C 59 % 0 lf 1014,2 hPa 0,0 l/m 2 min 0 min 336 W/m 12,6 km/h (3 Bft)
25.08.2015 17:01 20,6 C 18,9 C 59 % 0 lf 1014,2 hPa 0,0 l/m 2 min 0 min 336 W/m 18,8 km/h (3 Bft)
25.08.2015 17:02 20,6 C 18,9 C 59 % 0 lf 1014,1 hPa 0,0 l/m 1 min 0 min 336 W/m 0,0 km/h (0 Bft)
25.08.2015 17:03 20,4 C 18,9 C 61 % 0 lf 1014,1 hPa 0,0 l/m 1 min 0 min 260 W/m 14,6 km/h (3 Bft)
25.08.2015 17:04 20,5 C 18,9 C 61 % 0 lf 1014,2 hPa 0,0 l/m 1 min 0 min 260 W/m 18,8 km/h (3 Bft)
25.08.2015 17:05 20,5 C 18,9 C 61 % 0 lf 1014,2 hPa 0,0 l/m 1 min 0 min 260 W/m 29,3 km/h (5 Bft)
25.08.2015 17:06 20,6 C 19,4 C 60 % 0 lf 1014,1 hPa 0,0 l/m 0 min 0 min 246 W/m 33,5 km/h (5 Bft)
25.08.2015 17:07 20,6 C 18,9 C 60 % 0 lf 1014,1 hPa 0,0 l/m 0 min 0 min 229 W/m 12,6 km/h (3 Bft)
25.08.2015 17:10 20,5 C 18,9 C 57 % 0 lf 1014,1 hPa 0,0 l/m 0 min 0 min 194 W/m 25,1 km/h (4 Bft)
25.08.2015 17:12 20,5 C 18,3 C 57 % 0 lf 1014,0 hPa 0,0 l/m 0 min 0 min 195 W/m 35,6 km/h (5 Bft)
25.08.2015 17:14 20,4 C 18,3 C 57 % 0 lf 1014,0 hPa 0,0 l/m 0 min 0 min 151 W/m 29,3 km/h (5 Bft)
25.08.2015 17:21 20,4 C 18,0 C 57 % 0 lf 1014,0 hPa 0,0 l/m 0 min 0 min 160 W/m 31,4 km/h (5 Bft)
25.08.2015 17:28 20,1 C 18,0 C 58 % 0 lf 1014,1 hPa 0,0 l/m 2 min 0 min 241 W/m 23,0 km/h (4 Bft)
25.08.2015 17:29 20,1 C 18,0 C 58 % 0 lf 1014,2 hPa 0,0 l/m 1 min 0 min 246 W/m 18,8 km/h (3 Bft)
25.08.2015 17:30 20,0 C 18,0 C 58 % 0 lf 1014,1 hPa 0,0 l/m 1 min 0 min 246 W/m 23,0 km/h (4 Bft)
25.08.2015 17:31 20,0 C 18,0 C 59 % 0 lf 1014,0 hPa 0,0 l/m 1 min 0 min 585 W/m 25,1 km/h (4 Bft)
25.08.2015 17:32 20,0 C 18,0 C 59 % 0 lf 1014,0 hPa 0,0 l/m 1 min 0 min 585 W/m 16,7 km/h (3 Bft)
25.08.2015 17:33 20,0 C 18,0 C 59 % 0 lf 1014,1 hPa 0,0 l/m 1 min 0 min 585 W/m 25,1 km/h (4 Bft)
25.08.2015 17:34 20,0 C 18,0 C 58 % 0 lf 1014,1 hPa 0,0 l/m 1 min 0 min 239 W/m 29,3 km/h (5 Bft)
25.08.2015 17:35 20,0 C 18,0 C 58 % 0 lf 1014,1 hPa 0,0 l/m 0 min 0 min 206 W/m 31,4 km/h (5 Bft)
25.08.2015 17:36 20,0 C 18,0 C 58 % 0 lf 1014,1 hPa 0,0 l/m 1 min 0 min 281 W/m 18,8 km/h (3 Bft)
25.08.2015 17:37 20,0 C 18,0 C 58 % 0 lf 1014,1 hPa 0,0 l/m 1 min 0 min 330 W/m 20,9 km/h (4 Bft)
25.08.2015 18:00 20,0 C 18,0 C 58 % 0 lf 1014,1 hPa 0,0 l/m 2 min 0 min 330 W/m 29,3 km/h (5 Bft)
25.08.2015 18:01 20,0 C 18,0 C 58 % 0 lf 1014,1 hPa 0,0 l/m 1 min 0 min 330 W/m 0,0 km/h (0 Bft)
25.08.2015 18:02 19,6 C 18,0 C 58 % 0 lf 1014,1 hPa 0,0 l/m 1 min 0 min 330 W/m 14,6 km/h (3 Bft)
25.08.2015 18:03 19,6 C 18,0 C 58 % 0 lf 1014,1 hPa 0,0 l/m 0 min 0 min 91 W/m 16,7 km/h (3 Bft)
25.08.2015 18:04 19,6 C 18,0 C 58 % 0 lf 1014,1 hPa 0,0 l/m 0 min 0 min 88 W/m 14,6 km/h (3 Bft)
25.08.2015 18:05 19,6 C 18,0 C 58 % 0 lf 1014,1 hPa 0,0 l/m 0 min 0 min 83 W/m 14,6 km/h (3 Bft)
25.08.2015 18:11 19,6 C 18,0 C 58 % 0 lf 1014,1 hPa 0,0 l/m 0 min 0 min 77 W/m 10,5 km/h (2 Bft)
25.08.2015 18:15 19,6 C 18,0 C 58 % 0 lf 1014,1 hPa 0,0 l/m 0 min 0 min 77 W/m 0,0 km/h (0 Bft)
25.08.2015 18:16 19,4 C 18,0 C 60 % 0 lf 1014,0 hPa 0,0 l/m 0 min 0 min 77 W/m 0,0 km/h (0 Bft)
25.08.2015 18:20 19,4 C 17,8 C 60 % 0 lf 1014,0 hPa 0,0 l/m 0 min 0 min 65 W/m 0,0 km/h (0 Bft)
25.08.2015 18:22 19,3 C 17,8 C 60 % 0 lf 1014,0 hPa 0,0 l/m 0 min 0 min 56 W/m 2,1 km/h (1 Bft)
25.08.2015 18:24 19,3 C 17,2 C 60 % 0 lf 1014,0 hPa 0,0 l/m 0 min 0 min 54 W/m 6,3 km/h (2 Bft)
25.08.2015 18:26 19,2 C 17,2 C 59 % 0 lf 1013,9 hPa 0,0 l/m 0 min 0 min 53 W/m 6,3 km/h (2 Bft)
25.08.2015 18:28 19,2 C 17,2 C 59 % 0 lf 1013,9 hPa 0,0 l/m 0 min 0 min 55 W/m 8,4 km/h (2 Bft)
25.08.2015 18:30 19,2 C 17,2 C 59 % 0 lf 1013,8 hPa 0,0 l/m 0 min 0 min 56 W/m 4,2 km/h (1 Bft)
25.08.2015 18:32 19,2 C 17,2 C 60 % 0 lf 1013,9 hPa 0,0 l/m 0 min 0 min 53 W/m 8,4 km/h (2 Bft)
25.08.2015 18:34 19,1 C 17,2 C 59 % 0 lf 1013,9 hPa 0,0 l/m 0 min 0 min 49 W/m 6,3 km/h (2 Bft)
25.08.2015 18:36 19,1 C 17,2 C 60 % 0 lf 1014,0 hPa 0,0 l/m 0 min 0 min 46 W/m 12,6 km/h (3 Bft)
25.08.2015 18:38 19,1 C 17,2 C 59 % 0 lf 1013,9 hPa 0,0 l/m 0 min 0 min 45 W/m 0,0 km/h (0 Bft)
25.08.2015 18:40 19,1 C 17,2 C 60 % 0 lf 1013,9 hPa 0,0 l/m 0 min 0 min 46 W/m 0,0 km/h (0 Bft)
25.08.2015 18:42 19,1 C 17,2 C 60 % 0 lf 1013,9 hPa 0,0 l/m 0 min 0 min 47 W/m 2,1 km/h (1 Bft)
25.08.2015 18:44 19,1 C 17,2 C 60 % 0 lf 1013,8 hPa 0,0 l/m 0 min 0 min 47 W/m 14,6 km/h (3 Bft)
25.08.2015 18:46 19,1 C 17,2 C 60 % 0 lf 1013,8 hPa 0,0 l/m 0 min 0 min 47 W/m 20,9 km/h (4 Bft)
25.08.2015 18:48 19,0 C 17,2 C 60 % 0 lf 1013,8 hPa 0,0 l/m 0 min 0 min 47 W/m 8,4 km/h (2 Bft)
25.08.2015 18:50 19,0 C 17,2 C 61 % 0 lf 1013,8 hPa 0,0 l/m 0 min 0 min 46 W/m 6,3 km/h (2 Bft)
25.08.2015 18:52 19,0 C 17,2 C 60 % 0 lf 1013,8 hPa 0,0 l/m 0 min 0 min 42 W/m 6,3 km/h (2 Bft)
25.08.2015 18:54 18,9 C 17,2 C 61 % 0 lf 1013,7 hPa 0,0 l/m 0 min 0 min 41 W/m 6,3 km/h (2 Bft)
25.08.2015 18:56 18,9 C 17,2 C 61 % 0 lf 1013,7 hPa 0,0 l/m 0 min 0 min 39 W/m 10,5 km/h (2 Bft)
25.08.2015 18:58 18,9 C 17,2 C 61 % 0 lf 1013,7 hPa 0,0 l/m 0 min 0 min 37 W/m 4,2 km/h (1 Bft)
25.08.2015 19:00 18,9 C 17,2 C 61 % 0 lf 1013,7 hPa 0,0 l/m 0 min 0 min 37 W/m 2,1 km/h (1 Bft)
25.08.2015 19:02 18,9 C 17,2 C 61 % 0 lf 1013,7 hPa 0,0 l/m 0 min 0 min 38 W/m 4,2 km/h (1 Bft)
25.08.2015 19:04 18,9 C 17,2 C 62 % 0 lf 1013,7 hPa 0,0 l/m 0 min 0 min 39 W/m 0,0 km/h (0 Bft)
25.08.2015 19:06 18,9 C 17,2 C 61 % 0 lf 1013,7 hPa 0,0 l/m 0 min 0 min 39 W/m 0,0 km/h (0 Bft)
25.08.2015 19:08 18,9 C 17,2 C 62 % 0 lf 1013,8 hPa 0,0 l/m 0 min 0 min 37 W/m 0,0 km/h (0 Bft)
25.08.2015 19:10 18,9 C 17,2 C 62 % 0 lf 1013,7 hPa 0,0 l/m 0 min 0 min 34 W/m 6,3 km/h (2 Bft)
25.08.2015 19:12 18,9 C 16,7 C 62 % 2 lf 1013,8 hPa 0,0 l/m 0 min 2 min 34 W/m 0,0 km/h (0 Bft)
25.08.2015 19:14 18,9 C 16,1 C 62 % 0 lf 1013,8 hPa 0,0 l/m 0 min 2 min 37 W/m 0,0 km/h (0 Bft)
25.08.2015 19:16 18,8 C 16,1 C 63 % 2 lf 1013,7 hPa 0,0 l/m 0 min 2 min 45 W/m 2,1 km/h (1 Bft)
25.08.2015 19:18 18,8 C 16,7 C 63 % 0 lf 1013,7 hPa 0,0 l/m 0 min 2 min 59 W/m 0,0 km/h (0 Bft)
25.08.2015 19:20 18,8 C 16,7 C 64 % 0 lf 1013,7 hPa 0,0 l/m 0 min 0 min 75 W/m 0,0 km/h (0 Bft)
25.08.2015 19:22 18,8 C 16,7 C 63 % 0 lf 1013,7 hPa 0,0 l/m 0 min 0 min 80 W/m 2,1 km/h (1 Bft)
25.08.2015 19:24 18,8 C 17,2 C 64 % 0 lf 1013,7 hPa 0,0 l/m 0 min 0 min 74 W/m 0,0 km/h (0 Bft)
25.08.2015 19:26 18,8 C 17,2 C 64 % 0 lf 1013,8 hPa 0,0 l/m 0 min 0 min 64 W/m 0,0 km/h (0 Bft)
25.08.2015 19:28 18,8 C 17,2 C 64 % 0 lf 1013,7 hPa 0,0 l/m 0 min 0 min 54 W/m 0,0 km/h (0 Bft)
25.08.2015 19:30 18,8 C 17,2 C 63 % 0 lf 1013,7 hPa 0,0 l/m 0 min 0 min 44 W/m 2,1 km/h (1 Bft)
25.08.2015 19:32 18,8 C 17,2 C 64 % 0 lf 1013,8 hPa 0,0 l/m 0 min 0 min 36 W/m 0,0 km/h (0 Bft)
25.08.2015 19:34 18,8 C 17,2 C 64 % 0 lf 1013,7 hPa 0,0 l/m 0 min 0 min 33 W/m 8,4 km/h (2 Bft)
25.08.2015 19:36 18,8 C 17,2 C 64 % 1 lf 1013,7 hPa 0,0 l/m 0 min 2 min 35 W/m 0,0 km/h (0 Bft)
25.08.2015 19:38 18,8 C 17,2 C 64 % 0 lf 1013,8 hPa 0,0 l/m 0 min 2 min 31 W/m 0,0 km/h (0 Bft)
25.08.2015 19:40 18,8 C 17,2 C 64 % 0 lf 1013,9 hPa 0,0 l/m 0 min 0 min 22 W/m 0,0 km/h (0 Bft)
25.08.2015 19:42 18,8 C 16,7 C 65 % 0 lf 1013,9 hPa 0,0 l/m 0 min 0 min 15 W/m 0,0 km/h (0 Bft)
25.08.2015 19:44 18,8 C 16,7 C 65 % 0 lf 1014,0 hPa 0,0 l/m 0 min 2 min 13 W/m 4,2 km/h (1 Bft)
25.08.2015 19:46 18,8 C 16,7 C 65 % 0 lf 1013,9 hPa 0,0 l/m 0 min 2 min 12 W/m 6,3 km/h (2 Bft)
25.08.2015 19:48 18,8 C 16,7 C 65 % 0 lf 1014,0 hPa 0,0 l/m 0 min 2 min 11 W/m 4,2 km/h (1 Bft)
25.08.2015 19:50 18,7 C 16,7 C 65 % 0 lf 1014,1 hPa 0,0 l/m 0 min 0 min 11 W/m 6,3 km/h (2 Bft)
25.08.2015 19:52 18,7 C 16,7 C 64 % 0 lf 1014,0 hPa 0,0 l/m 0 min 0 min 11 W/m 6,3 km/h (2 Bft)
25.08.2015 19:54 18,7 C 16,7 C 64 % 0 lf 1013,9 hPa 0,0 l/m 0 min 0 min 12 W/m 4,2 km/h (1 Bft)
25.08.2015 19:56 18,7 C 15,6 C 65 % 2 lf 1014,1 hPa 0,0 l/m 0 min 0 min 12 W/m 6,3 km/h (2 Bft)
25.08.2015 19:58 18,7 C 15,0 C 65 % 1 lf 1014,1 hPa 0,0 l/m 0 min 2 min 9 W/m 6,3 km/h (2 Bft)
25.08.2015 20:00 18,7 C 14,4 C 66 % 4 lf 1014,1 hPa 0,0 l/m 0 min 2 min 9 W/m 0,0 km/h (0 Bft)
25.08.2015 20:02 18,7 C 14,4 C 67 % 14 lf 1014,1 hPa 0,0 l/m 0 min 2 min 7 W/m 8,4 km/h (2 Bft)
25.08.2015 20:04 18,7 C 13,9 C 67 % 13 lf 1014,1 hPa 0,0 l/m 0 min 2 min 7 W/m 4,2 km/h (1 Bft)
25.08.2015 20:06 18,7 C 13,9 C 67 % 14 lf 1014,2 hPa 0,0 l/m 0 min 2 min 7 W/m 0,0 km/h (0 Bft)
25.08.2015 20:08 18,6 C 13,9 C 68 % 14 lf 1014,2 hPa 0,0 l/m 0 min 2 min 6 W/m 0,0 km/h (0 Bft)
25.08.2015 20:10 18,6 C 13,9 C 68 % 12 lf 1014,2 hPa 0,0 l/m 0 min 2 min 5 W/m 6,3 km/h (2 Bft)
25.08.2015 20:12 18,5 C 13,9 C 68 % 11 lf 1014,2 hPa 0,0 l/m 0 min 2 min 5 W/m 6,3 km/h (2 Bft)
25.08.2015 20:14 18,4 C 13,9 C 69 % 4 lf 1014,1 hPa 0,0 l/m 0 min 2 min 6 W/m 10,5 km/h (2 Bft)
25.08.2015 20:16 18,4 C 13,9 C 69 % 1 lf 1014,2 hPa 0,0 l/m 0 min 2 min 7 W/m 0,0 km/h (0 Bft)
25.08.2015 20:18 18,3 C 13,9 C 69 % 0 lf 1014,1 hPa 0,0 l/m 0 min 0 min 7 W/m 0,0 km/h (0 Bft)
25.08.2015 20:20 18,3 C 13,9 C 70 % 4 lf 1014,1 hPa 0,0 l/m 0 min 2 min 5 W/m 0,0 km/h (0 Bft)
25.08.2015 20:22 18,3 C 13,9 C 70 % 2 lf 1014,1 hPa 0,0 l/m 0 min 2 min 5 W/m 0,0 km/h (0 Bft)
25.08.2015 20:24 18,2 C 13,9 C 70 % 0 lf 1014,2 hPa 0,0 l/m 0 min 0 min 4 W/m 0,0 km/h (0 Bft)
25.08.2015 20:26 18,2 C 13,9 C 71 % 0 lf 1014,2 hPa 0,0 l/m 0 min 0 min 0 W/m 4,2 km/h (1 Bft)
25.08.2015 20:28 18,1 C 13,9 C 71 % 0 lf 1014,2 hPa 0,0 l/m 0 min 0 min 0 W/m 8,4 km/h (2 Bft)
25.08.2015 20:30 18,0 C 13,9 C 71 % 0 lf 1014,2 hPa 0,0 l/m 0 min 0 min 0 W/m 4,2 km/h (1 Bft)
25.08.2015 20:32 17,9 C 14,4 C 71 % 0 lf 1014,1 hPa 0,2 l/m 0 min 2 min 0 W/m 18,8 km/h (3 Bft)
25.08.2015 20:34 17,8 C 15,0 C 71 % 0 lf 1014,1 hPa 0,0 l/m 0 min 0 min 0 W/m 0,0 km/h (0 Bft)
25.08.2015 20:36 17,8 C 15,0 C 72 % 0 lf 1014,1 hPa 0,0 l/m 0 min 0 min 0 W/m 0,0 km/h (0 Bft)
25.08.2015 20:38 17,8 C 15,0 C 72 % 0 lf 1014,1 hPa 0,0 l/m 0 min 0 min 0 W/m 6,3 km/h (2 Bft)
25.08.2015 20:40 17,7 C 15,6 C 72 % 0 lf 1014,1 hPa 0,0 l/m 0 min 0 min 0 W/m 4,2 km/h (1 Bft)
25.08.2015 20:42 17,7 C 15,6 C 72 % 0 lf 1014,1 hPa 0,0 l/m 0 min 0 min 0 W/m 2,1 km/h (1 Bft)
25.08.2015 20:44 17,7 C 15,6 C 72 % 0 lf 1014,1 hPa 0,0 l/m 0 min 0 min 0 W/m 0,0 km/h (0 Bft)
25.08.2015 20:46 17,7 C 15,6 C 73 % 0 lf 1014,0 hPa 0,0 l/m 0 min 0 min 0 W/m 0,0 km/h (0 Bft)
25.08.2015 20:48 17,6 C 15,6 C 73 % 0 lf 1014,0 hPa 0,0 l/m 0 min 0 min 0 W/m 0,0 km/h (0 Bft)
25.08.2015 20:50 17,6 C 15,6 C 73 % 0 lf 1013,9 hPa 0,0 l/m 0 min 0 min 0 W/m 0,0 km/h (0 Bft)
25.08.2015 20:52 17,6 C 15,6 C 73 % 0 lf 1013,9 hPa 0,0 l/m 0 min 0 min 0 W/m 4,2 km/h (1 Bft)
25.08.2015 20:54 17,6 C 15,6 C 73 % 0 lf 1013,9 hPa 0,0 l/m 0 min 0 min 0 W/m 0,0 km/h (0 Bft)
25.08.2015 20:56 17,6 C 15,6 C 73 % 0 lf 1013,9 hPa 0,0 l/m 0 min 0 min 0 W/m 0,0 km/h (0 Bft)
25.08.2015 20:58 17,6 C 15,6 C 73 % 0 lf 1013,9 hPa 0,0 l/m 0 min 0 min 0 W/m 0,0 km/h (0 Bft)
25.08.2015 21:00 17,5 C 15,6 C 73 % 0 lf 1013,8 hPa 0,0 l/m 0 min 0 min 0 W/m 0,0 km/h (0 Bft)
25.08.2015 21:02 17,5 C 15,6 C 73 % 0 lf 1013,8 hPa 0,0 l/m 0 min 0 min 0 W/m 6,3 km/h (2 Bft)
25.08.2015 21:04 17,5 C 15,6 C 73 % 0 lf 1013,9 hPa 0,0 l/m 0 min 0 min 0 W/m 2,1 km/h (1 Bft)
25.08.2015 21:06 17,5 C 15,6 C 73 % 0 lf 1013,9 hPa 0,0 l/m 0 min 0 min 0 W/m 2,1 km/h (1 Bft)
25.08.2015 21:08 17,5 C 15,6 C 73 % 0 lf 1013,9 hPa 0,0 l/m 0 min 0 min 0 W/m 8,4 km/h (2 Bft)
25.08.2015 21:10 17,5 C 15,6 C 73 % 0 lf 1013,9 hPa 0,0 l/m 0 min 0 min 0 W/m 4,2 km/h (1 Bft)
25.08.2015 21:12 17,4 C 16,1 C 73 % 0 lf 1013,9 hPa 0,0 l/m 0 min 0 min 0 W/m 2,1 km/h (1 Bft)
25.08.2015 21:14 17,4 C 16,1 C 73 % 0 lf 1013,9 hPa 0,0 l/m 0 min 0 min 0 W/m 6,3 km/h (2 Bft)
25.08.2015 21:16 17,4 C 16,1 C 73 % 0 lf 1013,8 hPa 0,0 l/m 0 min 0 min 0 W/m 2,1 km/h (1 Bft)
25.08.2015 21:18 17,4 C 16,1 C 73 % 0 lf 1013,8 hPa 0,0 l/m 0 min 0 min 0 W/m 4,2 km/h (1 Bft)
25.08.2015 21:20 17,4 C 15,6 C 73 % 0 lf 1013,8 hPa 0,0 l/m 0 min 0 min 0 W/m 0,0 km/h (0 Bft)
25.08.2015 21:22 17,4 C 15,6 C 73 % 0 lf 1013,9 hPa 0,0 l/m 0 min 0 min 0 W/m 0,0 km/h (0 Bft)
25.08.2015 21:24 17,4 C 15,6 C 74 % 0 lf 1013,9 hPa 0,0 l/m 0 min 0 min 0 W/m 0,0 km/h (0 Bft)
25.08.2015 21:26 17,4 C 15,6 C 74 % 0 lf 1013,9 hPa 0,0 l/m 0 min 0 min 0 W/m 10,5 km/h (2 Bft)
25.08.2015 21:28 17,4 C 15,6 C 74 % 0 lf 1013,8 hPa 0,0 l/m 0 min 0 min 0 W/m 2,1 km/h (1 Bft)
25.08.2015 21:30 17,4 C 15,6 C 74 % 0 lf 1013,9 hPa 0,0 l/m 0 min 0 min 0 W/m 2,1 km/h (1 Bft)
25.08.2015 21:32 17,4 C 15,6 C 75 % 0 lf 1013,7 hPa 0,0 l/m 0 min 0 min 0 W/m 2,1 km/h (1 Bft)
25.08.2015 21:34 17,4 C 15,6 C 75 % 0 lf 1013,8 hPa 0,0 l/m 0 min 0 min 0 W/m 6,3 km/h (2 Bft)
25.08.2015 21:36 17,3 C 15,6 C 75 % 0 lf 1013,8 hPa 0,0 l/m 0 min 0 min 0 W/m 10,5 km/h (2 Bft)
25.08.2015 21:38 17,3 C 15,6 C 75 % 0 lf 1013,9 hPa 0,0 l/m 0 min 0 min 0 W/m 8,4 km/h (2 Bft)
25.08.2015 21:40 17,3 C 15,6 C 75 % 0 lf 1013,9 hPa 0,0 l/m 0 min 0 min 0 W/m 8,4 km/h (2 Bft)
25.08.2015 21:42 17,3 C 15,6 C 76 % 0 lf 1013,9 hPa 0,0 l/m 0 min 0 min 0 W/m 6,3 km/h (2 Bft)
25.08.2015 21:44 17,2 C 15,6 C 76 % 0 lf 1013,9 hPa 0,0 l/m 0 min 0 min 0 W/m 4,2 km/h (1 Bft)
25.08.2015 21:46 17,2 C 15,6 C 76 % 0 lf 1013,9 hPa 0,0 l/m 0 min 0 min 0 W/m 6,3 km/h (2 Bft)
25.08.2015 21:48 17,2 C 15,6 C 76 % 0 lf 1013,9 hPa 0,0 l/m 0 min 0 min 0 W/m 8,4 km/h (2 Bft)
25.08.2015 21:50 17,1 C 15,6 C 76 % 0 lf 1014,0 hPa 0,0 l/m 0 min 0 min 0 W/m 2,1 km/h (1 Bft)
25.08.2015 21:52 17,1 C 15,6 C 76 % 0 lf 1014,0 hPa 0,0 l/m 0 min 0 min 0 W/m 0,0 km/h (0 Bft)
25.08.2015 21:54 17,1 C 15,6 C 76 % 0 lf 1013,9 hPa 0,0 l/m 0 min 0 min 0 W/m 12,6 km/h (3 Bft)
25.08.2015 21:56 17,1 C 15,6 C 76 % 0 lf 1014,0 hPa 0,0 l/m 0 min 0 min 0 W/m 0,0 km/h (0 Bft)
25.08.2015 21:58 17,1 C 15,6 C 76 % 0 lf 1014,0 hPa 0,0 l/m 0 min 0 min 0 W/m 2,1 km/h (1 Bft)
25.08.2015 22:00 17,0 C 15,6 C 76 % 0 lf 1014,0 hPa 0,0 l/m 0 min 0 min 0 W/m 8,4 km/h (2 Bft)
25.08.2015 22:02 17,0 C 15,6 C 76 % 0 lf 1014,0 hPa 0,0 l/m 0 min 0 min 0 W/m 6,3 km/h (2 Bft)
25.08.2015 22:04 17,0 C 15,6 C 76 % 0 lf 1014,0 hPa 0,0 l/m 0 min 0 min 0 W/m 8,4 km/h (2 Bft)
25.08.2015 22:06 17,0 C 15,6 C 76 % 0 lf 1014,0 hPa 0,0 l/m 0 min 0 min 0 W/m 0,0 km/h (0 Bft)
25.08.2015 22:08 16,9 C 15,6 C 76 % 0 lf 1014,0 hPa 0,0 l/m 0 min 0 min 0 W/m 0,0 km/h (0 Bft)
25.08.2015 22:10 16,9 C 15,6 C 76 % 0 lf 1013,9 hPa 0,0 l/m 0 min 0 min 0 W/m 0,0 km/h (0 Bft)
25.08.2015 22:12 16,9 C 15,6 C 76 % 0 lf 1013,9 hPa 0,0 l/m 0 min 0 min 0 W/m 2,1 km/h (1 Bft)
25.08.2015 22:14 16,9 C 15,6 C 76 % 0 lf 1013,9 hPa 0,0 l/m 0 min 0 min 0 W/m 0,0 km/h (0 Bft)
25.08.2015 22:16 16,9 C 15,6 C 76 % 0 lf 1013,9 hPa 0,0 l/m 0 min 0 min 0 W/m 6,3 km/h (2 Bft)
25.08.2015 22:18 16,9 C 15,6 C 76 % 0 lf 1014,0 hPa 0,0 l/m 0 min 0 min 0 W/m 6,3 km/h (2 Bft)
25.08.2015 22:20 16,9 C 15,6 C 76 % 0 lf 1013,9 hPa 0,0 l/m 0 min 0 min 0 W/m 0,0 km/h (0 Bft)
25.08.2015 22:22 16,9 C 15,6 C 76 % 0 lf 1013,9 hPa 0,0 l/m 0 min 0 min 0 W/m 0,0 km/h (0 Bft)
25.08.2015 22:24 16,9 C 15,6 C 77 % 0 lf 1013,9 hPa 0,0 l/m 0 min 0 min 0 W/m 2,1 km/h (1 Bft)
25.08.2015 22:26 16,9 C 15,6 C 76 % 0 lf 1014,0 hPa 0,0 l/m 0 min 0 min 0 W/m 6,3 km/h (2 Bft)
25.08.2015 22:28 16,9 C 15,6 C 76 % 0 lf 1013,9 hPa 0,0 l/m 0 min 0 min 0 W/m 0,0 km/h (0 Bft)
25.08.2015 22:30 16,9 C 15,6 C 76 % 0 lf 1013,9 hPa 0,0 l/m 0 min 0 min 0 W/m 2,1 km/h (1 Bft)
25.08.2015 22:32 16,9 C 15,6 C 76 % 0 lf 1013,8 hPa 0,0 l/m 0 min 0 min 0 W/m 0,0 km/h (0 Bft)
25.08.2015 22:34 16,9 C 15,6 C 76 % 0 lf 1013,9 hPa 0,0 l/m 0 min 0 min 0 W/m 12,6 km/h (3 Bft)
25.08.2015 22:36 17,0 C 16,1 C 76 % 0 lf 1013,8 hPa 0,0 l/m 0 min 0 min 0 W/m 0,0 km/h (0 Bft)
25.08.2015 22:38 17,0 C 16,1 C 76 % 0 lf 1013,8 hPa 0,0 l/m 0 min 0 min 0 W/m 0,0 km/h (0 Bft)
25.08.2015 22:40 17,0 C 16,1 C 76 % 0 lf 1013,8 hPa 0,0 l/m 0 min 0 min 0 W/m 0,0 km/h (0 Bft)
25.08.2015 22:42 17,1 C 16,1 C 76 % 0 lf 1013,8 hPa 0,0 l/m 0 min 0 min 0 W/m 0,0 km/h (0 Bft)
25.08.2015 22:44 17,1 C 16,1 C 76 % 0 lf 1013,8 hPa 0,0 l/m 0 min 0 min 0 W/m 6,3 km/h (2 Bft)
25.08.2015 22:46 17,1 C 16,1 C 76 % 0 lf 1013,8 hPa 0,0 l/m 0 min 0 min 0 W/m 0,0 km/h (0 Bft)
25.08.2015 22:48 17,1 C 16,1 C 76 % 0 lf 1013,8 hPa 0,0 l/m 0 min 0 min 0 W/m 2,1 km/h (1 Bft)
25.08.2015 22:50 17,1 C 16,1 C 76 % 0 lf 1013,7 hPa 0,0 l/m 0 min 0 min 0 W/m 8,4 km/h (2 Bft)
25.08.2015 22:52 17,2 C 16,1 C 76 % 0 lf 1013,6 hPa 0,0 l/m 0 min 0 min 0 W/m 2,1 km/h (1 Bft)
25.08.2015 22:54 17,2 C 16,1 C 76 % 0 lf 1013,6 hPa 0,0 l/m 0 min 0 min 0 W/m 6,3 km/h (2 Bft)
25.08.2015 22:56 17,3 C 16,1 C 76 % 0 lf 1013,6 hPa 0,0 l/m 0 min 0 min 0 W/m 14,6 km/h (3 Bft)
25.08.2015 22:58 17,4 C 16,7 C 75 % 0 lf 1013,6 hPa 0,0 l/m 0 min 0 min 0 W/m 8,4 km/h (2 Bft)
25.08.2015 23:00 17,4 C 16,7 C 75 % 0 lf 1013,6 hPa 0,0 l/m 0 min 0 min 0 W/m 14,6 km/h (3 Bft)
25.08.2015 23:02 17,6 C 16,7 C 75 % 0 lf 1013,5 hPa 0,0 l/m 0 min 0 min 0 W/m 12,6 km/h (3 Bft)
25.08.2015 23:04 17,7 C 16,7 C 75 % 0 lf 1013,5 hPa 0,0 l/m 0 min 0 min 0 W/m 2,1 km/h (1 Bft)
25.08.2015 23:06 17,7 C 16,7 C 75 % 0 lf 1013,5 hPa 0,0 l/m 0 min 0 min 0 W/m 8,4 km/h (2 Bft)
25.08.2015 23:08 17,8 C 16,7 C 75 % 0 lf 1013,6 hPa 0,0 l/m 0 min 0 min 0 W/m 20,9 km/h (4 Bft)
25.08.2015 23:10 17,8 C 16,7 C 75 % 0 lf 1013,5 hPa 0,0 l/m 0 min 0 min 0 W/m 14,6 km/h (3 Bft)
25.08.2015 23:12 17,8 C 16,7 C 74 % 0 lf 1013,5 hPa 0,0 l/m 0 min 0 min 0 W/m 10,5 km/h (2 Bft)
25.08.2015 23:14 17,9 C 16,7 C 75 % 0 lf 1013,5 hPa 0,0 l/m 0 min 0 min 0 W/m 12,6 km/h (3 Bft)
25.08.2015 23:16 17,9 C 16,7 C 75 % 0 lf 1013,4 hPa 0,0 l/m 0 min 0 min 0 W/m 0,0 km/h (0 Bft)
25.08.2015 23:18 17,9 C 16,7 C 75 % 0 lf 1013,4 hPa 0,0 l/m 0 min 0 min 0 W/m 10,5 km/h (2 Bft)
25.08.2015 23:20 18,0 C 16,7 C 74 % 0 lf 1013,5 hPa 0,0 l/m 0 min 0 min 0 W/m 12,6 km/h (3 Bft)
25.08.2015 23:22 18,1 C 16,7 C 75 % 0 lf 1013,5 hPa 0,0 l/m 0 min 0 min 0 W/m 4,2 km/h (1 Bft)
25.08.2015 23:24 18,1 C 16,7 C 75 % 0 lf 1013,4 hPa 0,0 l/m 0 min 0 min 0 W/m 0,0 km/h (0 Bft)
25.08.2015 23:26 18,1 C 16,7 C 74 % 0 lf 1013,4 hPa 0,0 l/m 0 min 0 min 0 W/m 8,4 km/h (2 Bft)
25.08.2015 23:28 18,1 C 16,7 C 75 % 0 lf 1013,4 hPa 0,0 l/m 0 min 0 min 0 W/m 10,5 km/h (2 Bft)
25.08.2015 23:30 18,1 C 16,7 C 75 % 0 lf 1013,5 hPa 0,0 l/m 0 min 0 min 0 W/m 12,6 km/h (3 Bft)
25.08.2015 23:32 18,1 C 16,7 C 75 % 0 lf 1013,5 hPa 0,0 l/m 0 min 0 min 0 W/m 12,6 km/h (3 Bft)
25.08.2015 23:34 18,1 C 16,7 C 75 % 0 lf 1013,4 hPa 0,0 l/m 0 min 0 min 0 W/m 14,6 km/h (3 Bft)
25.08.2015 23:36 18,2 C 16,7 C 75 % 0 lf 1013,3 hPa 0,0 l/m 0 min 0 min 0 W/m 8,4 km/h (2 Bft)
25.08.2015 23:38 18,2 C 16,7 C 75 % 0 lf 1013,3 hPa 0,0 l/m 0 min 0 min 0 W/m 8,4 km/h (2 Bft)
25.08.2015 23:40 18,2 C 16,1 C 75 % 0 lf 1013,4 hPa 0,0 l/m 0 min 0 min 0 W/m 0,0 km/h (0 Bft)
25.08.2015 23:42 18,2 C 16,1 C 75 % 0 lf 1013,3 hPa 0,0 l/m 0 min 0 min 0 W/m 10,5 km/h (2 Bft)
25.08.2015 23:44 18,2 C 16,1 C 75 % 0 lf 1013,4 hPa 0,0 l/m 0 min 0 min 0 W/m 4,2 km/h (1 Bft)
25.08.2015 23:46 18,2 C 16,7 C 75 % 0 lf 1013,5 hPa 0,0 l/m 0 min 0 min 0 W/m 8,4 km/h (2 Bft)
25.08.2015 23:48 18,2 C 16,7 C 75 % 0 lf 1013,5 hPa 0,0 l/m 0 min 0 min 0 W/m 8,4 km/h (2 Bft)
25.08.2015 23:50 18,2 C 16,7 C 75 % 0 lf 1013,4 hPa 0,0 l/m 0 min 0 min 0 W/m 18,8 km/h (3 Bft)
25.08.2015 23:52 18,2 C 16,7 C 75 % 0 lf 1013,4 hPa 0,0 l/m 0 min 0 min 0 W/m 8,4 km/h (2 Bft)
25.08.2015 23:54 18,2 C 16,7 C 75 % 0 lf 1013,4 hPa 0,0 l/m 0 min 0 min 0 W/m 0,0 km/h (0 Bft)
25.08.2015 23:56 18,2 C 16,7 C 76 % 0 lf 1013,3 hPa 0,0 l/m 0 min 0 min 0 W/m 14,6 km/h (3 Bft)
25.08.2015 23:58 18,2 C 16,7 C 75 % 0 lf 1013,3 hPa 0,0 l/m 0 min 0 min 0 W/m 0,0 km/h (0 Bft)
_ Min-Zeit 07:26 04:08 17:10 00:00 00:00 - - - - 17:02
Minimum _ 14,6 C 12,8 C 57 % 0 lf 1002,5 hPa - - - - 0,0 km/h (0 Bft)
_ Max-Zeit 16:10 12:10 06:20 04:08 15:02 05:24 09:18 04:06 13:06 00:24
Maximum _ 21,1 C 21,7 C 96 % 15 lf 1014,7 hPa 0,4 l/m 2 min 2 min 987 W/m 54,4 km/h
W-SW (7 Bft)
Durchschnitt _ 17,5 C 16,1 C 77 % 3 lf 1010,6 hPa #3,2 l/m #5:32 h #3:51 h 303 W/m 24,4 km/h (4 Bft)
© 2015 W. Hausmann